Wetterdaten: Freitag, 28.06.2019
Datum Zeit Temp. Aussen Temp. o. S. +5cm Feuchte Auss Luftdruck Regen Sonnenschein Regendauer Solar Windben Empfang
28.06.2019 00:00 18,1 C 16,1 C 16,1 C 73 % 1026,0 hPa 0,0 l/m 0 min 0 min 0 W/m 6,4 km/h (2 Bft) 95,65 %
28.06.2019 00:02 18,1 C 16,1 C 16,1 C 73 % 1026,1 hPa 0,0 l/m 0 min 0 min 0 W/m 0,0 km/h (0 Bft) 20,00 %
28.06.2019 00:04 18,1 C 16,1 C 16,1 C 73 % 1026,1 hPa 0,0 l/m 0 min 0 min 0 W/m 3,2 km/h (1 Bft) 69,57 %
28.06.2019 00:08 17,9 C 16,1 C 16,1 C 74 % 1026,0 hPa 0,0 l/m 0 min 0 min 0 W/m 3,2 km/h (1 Bft) 98,94 %
28.06.2019 00:10 17,9 C 16,1 C 16,1 C 74 % 1026,0 hPa 0,0 l/m 0 min 0 min 0 W/m 9,7 km/h (2 Bft) 100,00 %
28.06.2019 00:12 17,9 C 16,1 C 16,1 C 74 % 1026,0 hPa 0,0 l/m 0 min 0 min 0 W/m 3,2 km/h (1 Bft) 100,00 %
28.06.2019 00:14 17,8 C 16,1 C 16,1 C 75 % 1026,0 hPa 0,0 l/m 0 min 0 min 0 W/m 3,2 km/h (1 Bft) 97,87 %
28.06.2019 00:16 17,8 C 16,1 C 16,1 C 75 % 1026,0 hPa 0,0 l/m 0 min 0 min 0 W/m 3,2 km/h (1 Bft) 100,00 %
28.06.2019 00:18 17,8 C 16,1 C 16,1 C 75 % 1026,1 hPa 0,0 l/m 0 min 0 min 0 W/m 6,4 km/h (2 Bft) 100,00 %
28.06.2019 00:20 17,8 C 16,1 C 16,1 C 75 % 1026,0 hPa 0,0 l/m 0 min 0 min 0 W/m 3,2 km/h (1 Bft) 97,87 %
28.06.2019 00:22 17,7 C 16,1 C 16,1 C 75 % 1026,0 hPa 0,0 l/m 0 min 0 min 0 W/m 3,2 km/h (1 Bft) 100,00 %
28.06.2019 00:24 17,7 C 16,1 C 16,1 C 75 % 1026,0 hPa 0,0 l/m 0 min 0 min 0 W/m 6,4 km/h (2 Bft) 95,74 %
28.06.2019 00:26 17,7 C 16,1 C 16,1 C 76 % 1026,0 hPa 0,0 l/m 0 min 0 min 0 W/m 6,4 km/h (2 Bft) 97,87 %
28.06.2019 00:28 17,6 C 16,1 C 16,1 C 76 % 1025,9 hPa 0,0 l/m 0 min 0 min 0 W/m 6,4 km/h (2 Bft) 100,00 %
28.06.2019 00:30 17,6 C 16,1 C 15,6 C 76 % 1025,9 hPa 0,0 l/m 0 min 0 min 0 W/m 6,4 km/h (2 Bft) 97,87 %
28.06.2019 00:32 17,6 C 16,1 C 15,6 C 76 % 1025,9 hPa 0,0 l/m 0 min 0 min 0 W/m 6,4 km/h (2 Bft) 97,87 %
28.06.2019 00:34 17,5 C 15,6 C 15,6 C 76 % 1025,9 hPa 0,0 l/m 0 min 0 min 0 W/m 3,2 km/h (1 Bft) 97,83 %
28.06.2019 00:36 17,5 C 15,6 C 15,6 C 76 % 1026,0 hPa 0,0 l/m 0 min 0 min 0 W/m 3,2 km/h (1 Bft) 97,87 %
28.06.2019 00:38 17,4 C 15,6 C 15,6 C 76 % 1026,0 hPa 0,0 l/m 0 min 0 min 0 W/m 3,2 km/h (1 Bft) 97,87 %
28.06.2019 00:40 17,4 C 15,6 C 15,6 C 76 % 1026,0 hPa 0,0 l/m 0 min 0 min 0 W/m 3,2 km/h (1 Bft) 97,87 %
28.06.2019 00:42 17,4 C 15,6 C 15,0 C 76 % 1025,9 hPa 0,0 l/m 0 min 0 min 0 W/m 6,4 km/h (2 Bft) 95,74 %
28.06.2019 00:44 17,4 C 15,6 C 15,0 C 76 % 1025,9 hPa 0,0 l/m 0 min 0 min 0 W/m 6,4 km/h (2 Bft) 97,87 %
28.06.2019 00:46 17,3 C 15,6 C 15,6 C 77 % 1025,9 hPa 0,0 l/m 0 min 0 min 0 W/m 6,4 km/h (2 Bft) 97,83 %
28.06.2019 00:48 17,2 C 15,6 C 15,6 C 77 % 1025,9 hPa 0,0 l/m 0 min 0 min 0 W/m 6,4 km/h (2 Bft) 97,87 %
28.06.2019 00:50 17,2 C 15,6 C 15,6 C 77 % 1025,9 hPa 0,0 l/m 0 min 0 min 0 W/m 6,4 km/h (2 Bft) 97,87 %
28.06.2019 00:52 17,2 C 15,6 C 15,6 C 77 % 1025,9 hPa 0,0 l/m 0 min 0 min 0 W/m 6,4 km/h (2 Bft) 95,74 %
28.06.2019 00:54 17,1 C 15,6 C 15,6 C 77 % 1025,9 hPa 0,0 l/m 0 min 0 min 0 W/m 6,4 km/h (2 Bft) 97,87 %
28.06.2019 00:56 17,1 C 15,6 C 15,6 C 77 % 1025,9 hPa 0,0 l/m 0 min 0 min 0 W/m 9,7 km/h (2 Bft) 97,87 %
28.06.2019 00:58 17,1 C 15,6 C 15,6 C 77 % 1025,9 hPa 0,0 l/m 0 min 0 min 0 W/m 6,4 km/h (2 Bft) 97,83 %
28.06.2019 01:00 17,0 C 15,6 C 15,6 C 78 % 1025,8 hPa 0,0 l/m 0 min 0 min 0 W/m 6,4 km/h (2 Bft) 97,87 %
28.06.2019 01:02 16,9 C 15,6 C 15,6 C 78 % 1025,9 hPa 0,0 l/m 0 min 0 min 0 W/m 6,4 km/h (2 Bft) 95,74 %
28.06.2019 01:04 16,9 C 15,6 C 15,6 C 78 % 1025,8 hPa 0,0 l/m 0 min 0 min 0 W/m 3,2 km/h (1 Bft) 95,74 %
28.06.2019 01:06 16,9 C 15,6 C 15,6 C 78 % 1025,8 hPa 0,0 l/m 0 min 0 min 0 W/m 6,4 km/h (2 Bft) 97,87 %
28.06.2019 01:08 16,8 C 15,6 C 15,6 C 78 % 1025,9 hPa 0,0 l/m 0 min 0 min 0 W/m 9,7 km/h (2 Bft) 95,74 %
28.06.2019 01:10 16,8 C 15,6 C 15,6 C 78 % 1025,9 hPa 0,0 l/m 0 min 0 min 0 W/m 6,4 km/h (2 Bft) 95,65 %
28.06.2019 01:12 16,8 C 15,6 C 15,6 C 78 % 1025,9 hPa 0,0 l/m 0 min 0 min 0 W/m 6,4 km/h (2 Bft) 95,74 %
28.06.2019 01:14 16,7 C 15,0 C 15,0 C 78 % 1025,9 hPa 0,0 l/m 0 min 0 min 0 W/m 3,2 km/h (1 Bft) 97,87 %
28.06.2019 01:16 16,7 C 15,0 C 15,0 C 78 % 1025,9 hPa 0,0 l/m 0 min 0 min 0 W/m 3,2 km/h (1 Bft) 93,62 %
28.06.2019 01:18 16,7 C 15,0 C 15,0 C 78 % 1025,8 hPa 0,0 l/m 0 min 0 min 0 W/m 3,2 km/h (1 Bft) 97,87 %
28.06.2019 01:20 16,7 C 15,0 C 15,0 C 78 % 1025,8 hPa 0,0 l/m 0 min 0 min 0 W/m 6,4 km/h (2 Bft) 97,83 %
28.06.2019 01:22 16,6 C 15,0 C 15,0 C 78 % 1025,9 hPa 0,0 l/m 0 min 0 min 0 W/m 3,2 km/h (1 Bft) 97,87 %
28.06.2019 01:24 16,6 C 15,0 C 15,0 C 78 % 1025,8 hPa 0,0 l/m 0 min 0 min 0 W/m 6,4 km/h (2 Bft) 97,87 %
28.06.2019 01:26 16,5 C 15,0 C 15,0 C 78 % 1025,9 hPa 0,0 l/m 0 min 0 min 0 W/m 6,4 km/h (2 Bft) 97,87 %
28.06.2019 01:28 16,5 C 15,0 C 15,0 C 79 % 1025,9 hPa 0,0 l/m 0 min 0 min 0 W/m 6,4 km/h (2 Bft) 97,87 %
28.06.2019 01:30 16,4 C 15,0 C 15,0 C 79 % 1025,8 hPa 0,0 l/m 0 min 0 min 0 W/m 6,4 km/h (2 Bft) 97,87 %
28.06.2019 01:32 16,4 C 15,0 C 15,0 C 79 % 1025,9 hPa 0,0 l/m 0 min 0 min 0 W/m 6,4 km/h (2 Bft) 91,30 %
28.06.2019 01:34 16,4 C 15,0 C 15,0 C 79 % 1025,8 hPa 0,0 l/m 0 min 0 min 0 W/m 6,4 km/h (2 Bft) 97,87 %
28.06.2019 01:36 16,3 C 15,0 C 15,0 C 79 % 1025,8 hPa 0,0 l/m 0 min 0 min 0 W/m 6,4 km/h (2 Bft) 97,87 %
28.06.2019 01:38 16,3 C 15,0 C 15,0 C 79 % 1025,8 hPa 0,0 l/m 0 min 0 min 0 W/m 3,2 km/h (1 Bft) 97,87 %
28.06.2019 01:40 16,3 C 15,0 C 15,0 C 79 % 1025,8 hPa 0,0 l/m 0 min 0 min 0 W/m 6,4 km/h (2 Bft) 97,87 %
28.06.2019 01:42 16,2 C 15,0 C 15,0 C 79 % 1025,9 hPa 0,0 l/m 0 min 0 min 0 W/m 9,7 km/h (2 Bft) 97,87 %
28.06.2019 01:44 16,2 C 14,4 C 14,4 C 79 % 1025,9 hPa 0,0 l/m 0 min 0 min 0 W/m 3,2 km/h (1 Bft) 97,83 %
28.06.2019 01:46 16,2 C 14,4 C 14,4 C 79 % 1025,9 hPa 0,0 l/m 0 min 0 min 0 W/m 3,2 km/h (1 Bft) 95,74 %
28.06.2019 01:48 16,1 C 14,4 C 14,4 C 79 % 1025,9 hPa 0,0 l/m 0 min 0 min 0 W/m 3,2 km/h (1 Bft) 97,87 %
28.06.2019 01:50 16,1 C 14,4 C 14,4 C 80 % 1025,8 hPa 0,0 l/m 0 min 0 min 0 W/m 6,4 km/h (2 Bft) 95,74 %
28.06.2019 01:52 16,1 C 14,4 C 14,4 C 80 % 1025,9 hPa 0,0 l/m 0 min 0 min 0 W/m 6,4 km/h (2 Bft) 95,74 %
28.06.2019 01:54 16,0 C 14,4 C 14,4 C 80 % 1025,8 hPa 0,0 l/m 0 min 0 min 0 W/m 6,4 km/h (2 Bft) 100,00 %
28.06.2019 01:56 16,0 C 14,4 C 14,4 C 80 % 1025,8 hPa 0,0 l/m 0 min 0 min 0 W/m 9,7 km/h (2 Bft) 97,83 %
28.06.2019 01:58 15,9 C 14,4 C 14,4 C 80 % 1025,8 hPa 0,0 l/m 0 min 0 min 0 W/m 9,7 km/h (2 Bft) 100,00 %
28.06.2019 02:00 15,9 C 14,4 C 14,4 C 80 % 1025,9 hPa 0,0 l/m 0 min 0 min 0 W/m 9,7 km/h (2 Bft) 100,00 %
28.06.2019 02:02 15,8 C 14,4 C 14,4 C 80 % 1025,8 hPa 0,0 l/m 0 min 0 min 0 W/m 9,7 km/h (2 Bft) 100,00 %
28.06.2019 02:04 15,8 C 14,4 C 14,4 C 80 % 1025,8 hPa 0,0 l/m 0 min 0 min 0 W/m 6,4 km/h (2 Bft) 100,00 %
28.06.2019 02:06 15,7 C 14,4 C 14,4 C 80 % 1025,8 hPa 0,0 l/m 0 min 0 min 0 W/m 9,7 km/h (2 Bft) 97,87 %
28.06.2019 02:08 15,7 C 14,4 C 14,4 C 80 % 1025,8 hPa 0,0 l/m 0 min 0 min 0 W/m 6,4 km/h (2 Bft) 100,00 %
28.06.2019 02:10 15,7 C 13,9 C 14,4 C 80 % 1025,7 hPa 0,0 l/m 0 min 0 min 0 W/m 6,4 km/h (2 Bft) 100,00 %
28.06.2019 02:12 15,7 C 13,9 C 14,4 C 81 % 1025,7 hPa 0,0 l/m 0 min 0 min 0 W/m 6,4 km/h (2 Bft) 100,00 %
28.06.2019 02:14 15,6 C 13,9 C 13,9 C 81 % 1025,7 hPa 0,0 l/m 0 min 0 min 0 W/m 6,4 km/h (2 Bft) 100,00 %
28.06.2019 02:16 15,6 C 13,9 C 13,9 C 81 % 1025,7 hPa 0,0 l/m 0 min 0 min 0 W/m 6,4 km/h (2 Bft) 100,00 %
28.06.2019 02:18 15,6 C 13,9 C 14,4 C 81 % 1025,8 hPa 0,0 l/m 0 min 0 min 0 W/m 6,4 km/h (2 Bft) 100,00 %
28.06.2019 02:20 15,5 C 13,9 C 13,9 C 81 % 1025,8 hPa 0,0 l/m 0 min 0 min 0 W/m 6,4 km/h (2 Bft) 100,00 %
28.06.2019 02:22 15,5 C 13,9 C 13,9 C 81 % 1025,8 hPa 0,0 l/m 0 min 0 min 0 W/m 6,4 km/h (2 Bft) 100,00 %
28.06.2019 02:24 15,4 C 13,9 C 13,9 C 81 % 1025,7 hPa 0,0 l/m 0 min 0 min 0 W/m 3,2 km/h (1 Bft) 100,00 %
28.06.2019 02:26 15,4 C 13,9 C 13,9 C 81 % 1025,8 hPa 0,0 l/m 0 min 0 min 0 W/m 3,2 km/h (1 Bft) 100,00 %
28.06.2019 02:28 15,4 C 13,9 C 13,9 C 81 % 1025,8 hPa 0,0 l/m 0 min 0 min 0 W/m 3,2 km/h (1 Bft) 100,00 %
28.06.2019 02:30 15,4 C 13,9 C 13,3 C 81 % 1025,8 hPa 0,0 l/m 0 min 0 min 0 W/m 0,0 km/h (0 Bft) 100,00 %
28.06.2019 02:32 15,3 C 13,3 C 13,3 C 81 % 1025,8 hPa 0,0 l/m 0 min 0 min 0 W/m 0,0 km/h (0 Bft) 100,00 %
28.06.2019 02:34 15,3 C 13,3 C 13,3 C 81 % 1025,8 hPa 0,0 l/m 0 min 0 min 0 W/m 3,2 km/h (1 Bft) 100,00 %
28.06.2019 02:36 15,3 C 13,3 C 13,3 C 82 % 1025,8 hPa 0,0 l/m 0 min 0 min 0 W/m 3,2 km/h (1 Bft) 100,00 %
28.06.2019 02:38 15,2 C 13,3 C 13,3 C 82 % 1025,8 hPa 0,0 l/m 0 min 0 min 0 W/m 3,2 km/h (1 Bft) 97,87 %
28.06.2019 02:40 15,2 C 13,3 C 13,3 C 82 % 1025,8 hPa 0,0 l/m 0 min 0 min 0 W/m 0,0 km/h (0 Bft) 100,00 %
28.06.2019 02:42 15,2 C 13,3 C 13,3 C 82 % 1025,8 hPa 0,0 l/m 0 min 0 min 0 W/m 3,2 km/h (1 Bft) 100,00 %
28.06.2019 02:44 15,2 C 13,3 C 13,3 C 82 % 1025,8 hPa 0,0 l/m 0 min 0 min 0 W/m 3,2 km/h (1 Bft) 100,00 %
28.06.2019 02:46 15,1 C 13,3 C 12,8 C 82 % 1025,8 hPa 0,0 l/m 0 min 0 min 0 W/m 3,2 km/h (1 Bft) 100,00 %
28.06.2019 02:48 15,1 C 13,3 C 12,8 C 82 % 1025,8 hPa 0,0 l/m 0 min 0 min 0 W/m 3,2 km/h (1 Bft) 97,87 %
28.06.2019 02:50 15,1 C 12,8 C 12,8 C 82 % 1025,9 hPa 0,0 l/m 0 min 0 min 0 W/m 3,2 km/h (1 Bft) 97,87 %
28.06.2019 02:52 15,0 C 12,8 C 12,8 C 82 % 1025,8 hPa 0,0 l/m 0 min 0 min 0 W/m 3,2 km/h (1 Bft) 100,00 %
28.06.2019 02:54 15,0 C 12,8 C 12,8 C 82 % 1025,8 hPa 0,0 l/m 0 min 0 min 0 W/m 3,2 km/h (1 Bft) 95,65 %
28.06.2019 02:56 14,9 C 12,8 C 12,8 C 82 % 1025,8 hPa 0,0 l/m 0 min 0 min 0 W/m 3,2 km/h (1 Bft) 93,62 %
28.06.2019 02:58 14,9 C 12,8 C 12,8 C 82 % 1025,9 hPa 0,0 l/m 0 min 0 min 0 W/m 3,2 km/h (1 Bft) 97,87 %
28.06.2019 03:00 14,8 C 12,8 C 12,8 C 82 % 1025,9 hPa 0,0 l/m 0 min 0 min 0 W/m 0,0 km/h (0 Bft) 95,74 %
28.06.2019 03:02 14,8 C 12,8 C 12,8 C 82 % 1025,9 hPa 0,0 l/m 0 min 0 min 0 W/m 3,2 km/h (1 Bft) 92,31 %
28.06.2019 03:04 14,8 C 12,8 C 12,8 C 82 % 1025,9 hPa 0,0 l/m 0 min 0 min 0 W/m 3,2 km/h (1 Bft) 97,67 %
28.06.2019 03:06 14,7 C 12,8 C 12,8 C 82 % 1025,8 hPa 0,0 l/m 0 min 0 min 0 W/m 0,0 km/h (0 Bft) 95,65 %
28.06.2019 03:08 14,7 C 12,8 C 12,8 C 82 % 1025,8 hPa 0,0 l/m 0 min 0 min 0 W/m 0,0 km/h (0 Bft) 95,74 %
28.06.2019 03:10 14,7 C 12,8 C 12,8 C 82 % 1025,8 hPa 0,0 l/m 0 min 0 min 0 W/m 0,0 km/h (0 Bft) 95,74 %
28.06.2019 03:12 14,7 C 12,8 C 12,8 C 82 % 1025,8 hPa 0,0 l/m 0 min 0 min 0 W/m 0,0 km/h (0 Bft) 93,62 %
28.06.2019 03:14 14,6 C 12,8 C 12,8 C 83 % 1025,9 hPa 0,0 l/m 0 min 0 min 0 W/m 0,0 km/h (0 Bft) 95,74 %
28.06.2019 03:16 14,6 C 12,8 C 12,8 C 83 % 1025,9 hPa 0,0 l/m 0 min 0 min 0 W/m 0,0 km/h (0 Bft) 95,92 %
28.06.2019 03:18 14,6 C 12,8 C 12,8 C 83 % 1025,9 hPa 0,0 l/m 0 min 0 min 0 W/m 3,2 km/h (1 Bft) 95,74 %
28.06.2019 03:20 14,5 C 12,8 C 12,8 C 83 % 1025,9 hPa 0,0 l/m 0 min 0 min 0 W/m 3,2 km/h (1 Bft) 95,74 %
28.06.2019 03:22 14,4 C 12,8 C 12,2 C 83 % 1025,8 hPa 0,0 l/m 0 min 0 min 0 W/m 0,0 km/h (0 Bft) 95,74 %
28.06.2019 03:24 14,4 C 12,8 C 12,2 C 83 % 1025,9 hPa 0,0 l/m 0 min 0 min 0 W/m 0,0 km/h (0 Bft) 93,62 %
28.06.2019 03:26 14,4 C 12,2 C 12,2 C 83 % 1025,9 hPa 0,0 l/m 0 min 0 min 0 W/m 0,0 km/h (0 Bft) 95,74 %
28.06.2019 03:28 14,3 C 12,2 C 12,2 C 83 % 1025,9 hPa 0,0 l/m 0 min 0 min 0 W/m 0,0 km/h (0 Bft) 95,65 %
28.06.2019 03:30 14,3 C 12,2 C 12,2 C 83 % 1025,9 hPa 0,0 l/m 0 min 0 min 0 W/m 3,2 km/h (1 Bft) 97,87 %
28.06.2019 03:32 14,2 C 12,2 C 12,2 C 83 % 1025,8 hPa 0,0 l/m 0 min 0 min 0 W/m 6,4 km/h (2 Bft) 95,74 %
28.06.2019 03:34 14,2 C 12,2 C 12,2 C 83 % 1025,8 hPa 0,0 l/m 0 min 0 min 0 W/m 0,0 km/h (0 Bft) 97,87 %
28.06.2019 03:36 14,2 C 12,2 C 12,2 C 83 % 1025,9 hPa 0,0 l/m 0 min 0 min 0 W/m 0,0 km/h (0 Bft) 97,87 %
28.06.2019 03:38 14,2 C 12,2 C 12,2 C 83 % 1025,9 hPa 0,0 l/m 0 min 0 min 0 W/m 0,0 km/h (0 Bft) 97,87 %
28.06.2019 03:40 14,2 C 12,2 C 12,2 C 83 % 1025,9 hPa 0,0 l/m 0 min 0 min 0 W/m 3,2 km/h (1 Bft) 95,65 %
28.06.2019 03:42 14,2 C 12,2 C 12,2 C 83 % 1025,9 hPa 0,0 l/m 0 min 0 min 0 W/m 0,0 km/h (0 Bft) 97,87 %
28.06.2019 03:44 14,2 C 12,2 C 12,2 C 83 % 1025,9 hPa 0,0 l/m 0 min 0 min 0 W/m 0,0 km/h (0 Bft) 97,87 %
28.06.2019 03:46 14,2 C 12,2 C 12,2 C 84 % 1025,9 hPa 0,0 l/m 0 min 0 min 0 W/m 3,2 km/h (1 Bft) 97,87 %
28.06.2019 03:48 14,1 C 12,2 C 12,2 C 84 % 1025,9 hPa 0,0 l/m 0 min 0 min 0 W/m 0,0 km/h (0 Bft) 97,87 %
28.06.2019 03:50 14,1 C 12,2 C 12,2 C 84 % 1025,9 hPa 0,0 l/m 0 min 0 min 0 W/m 0,0 km/h (0 Bft) 95,74 %
28.06.2019 03:52 14,0 C 12,2 C 11,7 C 84 % 1025,9 hPa 0,0 l/m 0 min 0 min 0 W/m 3,2 km/h (1 Bft) 97,83 %
28.06.2019 03:54 14,0 C 12,2 C 12,2 C 84 % 1025,8 hPa 0,0 l/m 0 min 0 min 0 W/m 3,2 km/h (1 Bft) 95,74 %
28.06.2019 03:56 13,9 C 12,2 C 11,7 C 84 % 1025,9 hPa 0,0 l/m 0 min 0 min 0 W/m 0,0 km/h (0 Bft) 97,87 %
28.06.2019 03:58 13,9 C 12,2 C 11,7 C 84 % 1025,8 hPa 0,0 l/m 0 min 0 min 0 W/m 3,2 km/h (1 Bft) 97,87 %
28.06.2019 04:00 13,9 C 12,2 C 11,7 C 84 % 1025,8 hPa 0,0 l/m 0 min 0 min 0 W/m 0,0 km/h (0 Bft) 97,87 %
28.06.2019 04:02 13,8 C 12,2 C 11,7 C 84 % 1025,8 hPa 0,0 l/m 0 min 0 min 0 W/m 0,0 km/h (0 Bft) 100,00 %
28.06.2019 04:04 13,8 C 11,7 C 11,7 C 84 % 1025,7 hPa 0,0 l/m 0 min 0 min 0 W/m 0,0 km/h (0 Bft) 100,00 %
28.06.2019 04:06 13,8 C 11,7 C 11,7 C 84 % 1025,7 hPa 0,0 l/m 0 min 0 min 0 W/m 0,0 km/h (0 Bft) 95,74 %
28.06.2019 04:08 13,7 C 11,7 C 11,7 C 84 % 1025,8 hPa 0,0 l/m 0 min 0 min 0 W/m 0,0 km/h (0 Bft) 92,73 %
28.06.2019 04:10 13,7 C 11,7 C 11,7 C 85 % 1025,8 hPa 0,0 l/m 0 min 0 min 0 W/m 3,2 km/h (1 Bft) 97,87 %
28.06.2019 04:12 13,7 C 11,7 C 11,7 C 85 % 1025,8 hPa 0,0 l/m 0 min 0 min 0 W/m 3,2 km/h (1 Bft) 95,74 %
28.06.2019 04:14 13,7 C 11,7 C 11,7 C 85 % 1025,7 hPa 0,0 l/m 0 min 0 min 0 W/m 0,0 km/h (0 Bft) 95,74 %
28.06.2019 04:16 13,6 C 11,7 C 11,7 C 85 % 1025,7 hPa 0,0 l/m 0 min 0 min 0 W/m 0,0 km/h (0 Bft) 95,74 %
28.06.2019 04:18 13,6 C 11,7 C 11,7 C 85 % 1025,7 hPa 0,0 l/m 0 min 0 min 0 W/m 3,2 km/h (1 Bft) 95,65 %
28.06.2019 04:20 13,6 C 11,7 C 11,7 C 86 % 1025,7 hPa 0,0 l/m 0 min 0 min 0 W/m 3,2 km/h (1 Bft) 97,87 %
28.06.2019 04:22 13,6 C 12,2 C 11,7 C 86 % 1025,6 hPa 0,0 l/m 0 min 0 min 0 W/m 3,2 km/h (1 Bft) 95,74 %
28.06.2019 04:24 13,5 C 12,2 C 11,7 C 86 % 1025,7 hPa 0,0 l/m 0 min 0 min 0 W/m 3,2 km/h (1 Bft) 97,87 %
28.06.2019 04:26 13,5 C 12,2 C 11,7 C 86 % 1025,7 hPa 0,0 l/m 0 min 0 min 0 W/m 3,2 km/h (1 Bft) 95,74 %
28.06.2019 04:28 13,5 C 12,2 C 11,7 C 86 % 1025,8 hPa 0,0 l/m 0 min 0 min 0 W/m 3,2 km/h (1 Bft) 97,83 %
28.06.2019 04:30 13,4 C 11,7 C 11,7 C 87 % 1025,8 hPa 0,0 l/m 0 min 0 min 0 W/m 3,2 km/h (1 Bft) 97,87 %
28.06.2019 04:32 13,4 C 11,7 C 11,7 C 87 % 1025,8 hPa 0,0 l/m 0 min 0 min 0 W/m 6,4 km/h (2 Bft) 97,87 %
28.06.2019 04:34 13,4 C 12,2 C 11,7 C 87 % 1025,8 hPa 0,0 l/m 0 min 0 min 0 W/m 3,2 km/h (1 Bft) 95,74 %
28.06.2019 04:36 13,4 C 12,2 C 11,7 C 87 % 1025,9 hPa 0,0 l/m 0 min 0 min 0 W/m 3,2 km/h (1 Bft) 97,87 %
28.06.2019 04:38 13,3 C 12,2 C 11,7 C 87 % 1025,9 hPa 0,0 l/m 0 min 0 min 0 W/m 3,2 km/h (1 Bft) 93,62 %
28.06.2019 04:40 13,3 C 11,7 C 11,7 C 87 % 1025,9 hPa 0,0 l/m 0 min 0 min 0 W/m 0,0 km/h (0 Bft) 97,83 %
28.06.2019 04:42 13,3 C 11,7 C 11,7 C 88 % 1025,9 hPa 0,0 l/m 0 min 0 min 0 W/m 3,2 km/h (1 Bft) 97,87 %
28.06.2019 04:44 13,3 C 11,7 C 11,7 C 88 % 1025,9 hPa 0,0 l/m 0 min 0 min 0 W/m 3,2 km/h (1 Bft) 97,14 %
28.06.2019 04:46 13,3 C 11,7 C 11,7 C 88 % 1025,9 hPa 0,0 l/m 0 min 0 min 0 W/m 3,2 km/h (1 Bft) 98,31 %
28.06.2019 04:48 13,2 C 11,7 C 11,7 C 88 % 1025,9 hPa 0,0 l/m 0 min 0 min 0 W/m 6,4 km/h (2 Bft) 97,14 %
28.06.2019 04:50 13,2 C 11,7 C 11,7 C 88 % 1025,9 hPa 0,0 l/m 0 min 0 min 0 W/m 3,2 km/h (1 Bft) 94,92 %
28.06.2019 04:52 13,2 C 11,7 C 11,7 C 88 % 1026,0 hPa 0,0 l/m 0 min 0 min 0 W/m 3,2 km/h (1 Bft) 97,83 %
28.06.2019 04:54 13,2 C 11,7 C 11,7 C 88 % 1026,0 hPa 0,0 l/m 0 min 0 min 0 W/m 0,0 km/h (0 Bft) 97,87 %
28.06.2019 04:56 13,2 C 11,7 C 11,7 C 88 % 1025,9 hPa 0,0 l/m 0 min 0 min 0 W/m 0,0 km/h (0 Bft) 91,43 %
28.06.2019 04:58 13,1 C 11,7 C 11,7 C 88 % 1026,0 hPa 0,0 l/m 0 min 0 min 0 W/m 0,0 km/h (0 Bft) 98,31 %
28.06.2019 05:00 13,1 C 11,7 C 11,7 C 88 % 1026,0 hPa 0,0 l/m 0 min 0 min 0 W/m 3,2 km/h (1 Bft) 97,87 %
28.06.2019 05:02 13,1 C 11,7 C 11,7 C 88 % 1025,9 hPa 0,0 l/m 0 min 0 min 0 W/m 3,2 km/h (1 Bft) 100,00 %
28.06.2019 05:04 13,1 C 11,7 C 11,7 C 88 % 1025,9 hPa 0,0 l/m 0 min 0 min 0 W/m 0,0 km/h (0 Bft) 97,14 %
28.06.2019 05:06 13,1 C 11,7 C 11,7 C 88 % 1025,9 hPa 0,0 l/m 0 min 0 min 0 W/m 0,0 km/h (0 Bft) 98,28 %
28.06.2019 05:08 13,0 C 11,7 C 11,7 C 88 % 1025,9 hPa 0,0 l/m 0 min 0 min 0 W/m 0,0 km/h (0 Bft) 95,74 %
28.06.2019 05:10 13,0 C 11,7 C 11,7 C 88 % 1025,9 hPa 0,0 l/m 0 min 0 min 0 W/m 0,0 km/h (0 Bft) 97,87 %
28.06.2019 05:12 13,0 C 11,7 C 11,7 C 88 % 1026,0 hPa 0,0 l/m 0 min 0 min 0 W/m 0,0 km/h (0 Bft) 95,74 %
28.06.2019 05:14 12,9 C 11,7 C 11,1 C 88 % 1026,0 hPa 0,0 l/m 0 min 0 min 0 W/m 3,2 km/h (1 Bft) 95,74 %
28.06.2019 05:16 12,9 C 11,1 C 11,1 C 88 % 1026,0 hPa 0,0 l/m 0 min 0 min 0 W/m 0,0 km/h (0 Bft) 97,83 %
28.06.2019 05:18 12,9 C 11,1 C 11,1 C 88 % 1025,9 hPa 0,0 l/m 0 min 0 min 0 W/m 0,0 km/h (0 Bft) 97,87 %
28.06.2019 05:20 12,9 C 11,1 C 11,1 C 88 % 1025,9 hPa 0,0 l/m 0 min 0 min 0 W/m 0,0 km/h (0 Bft) 97,87 %
28.06.2019 05:22 12,8 C 11,1 C 11,1 C 88 % 1026,0 hPa 0,0 l/m 0 min 0 min 0 W/m 0,0 km/h (0 Bft) 93,62 %
28.06.2019 05:24 12,8 C 11,1 C 11,1 C 88 % 1025,9 hPa 0,0 l/m 0 min 0 min 0 W/m 0,0 km/h (0 Bft) 97,87 %
28.06.2019 05:26 12,8 C 11,1 C 11,1 C 88 % 1025,9 hPa 0,0 l/m 0 min 0 min 0 W/m 0,0 km/h (0 Bft) 95,65 %
28.06.2019 05:28 12,8 C 11,1 C 11,1 C 88 % 1025,9 hPa 0,0 l/m 0 min 0 min 3 W/m 0,0 km/h (0 Bft) 97,87 %
28.06.2019 05:30 12,8 C 11,1 C 11,1 C 88 % 1025,9 hPa 0,0 l/m 0 min 0 min 5 W/m 0,0 km/h (0 Bft) 97,87 %
28.06.2019 05:32 12,7 C 11,1 C 11,1 C 88 % 1025,9 hPa 0,0 l/m 0 min 0 min 5 W/m 0,0 km/h (0 Bft) 97,87 %
28.06.2019 05:34 12,7 C 11,1 C 11,1 C 88 % 1025,9 hPa 0,0 l/m 0 min 0 min 5 W/m 0,0 km/h (0 Bft) 97,87 %
28.06.2019 05:36 12,7 C 11,1 C 11,1 C 88 % 1025,9 hPa 0,0 l/m 0 min 0 min 6 W/m 0,0 km/h (0 Bft) 95,74 %
28.06.2019 05:38 12,7 C 11,1 C 11,1 C 88 % 1025,9 hPa 0,0 l/m 0 min 0 min 7 W/m 3,2 km/h (1 Bft) 97,83 %
28.06.2019 05:40 12,6 C 11,1 C 11,1 C 88 % 1025,9 hPa 0,0 l/m 0 min 0 min 7 W/m 0,0 km/h (0 Bft) 97,87 %
28.06.2019 05:42 12,6 C 11,1 C 11,1 C 88 % 1025,9 hPa 0,0 l/m 0 min 0 min 7 W/m 0,0 km/h (0 Bft) 100,00 %
28.06.2019 05:44 12,6 C 11,1 C 11,1 C 88 % 1025,9 hPa 0,0 l/m 0 min 0 min 8 W/m 0,0 km/h (0 Bft) 100,00 %
28.06.2019 05:46 12,6 C 11,1 C 11,1 C 89 % 1025,9 hPa 0,0 l/m 0 min 0 min 9 W/m 0,0 km/h (0 Bft) 100,00 %
28.06.2019 05:48 12,6 C 11,1 C 11,1 C 89 % 1025,9 hPa 0,0 l/m 0 min 0 min 9 W/m 0,0 km/h (0 Bft) 97,14 %
28.06.2019 05:50 12,5 C 11,1 C 11,1 C 89 % 1025,9 hPa 0,0 l/m 0 min 0 min 9 W/m 0,0 km/h (0 Bft) 97,87 %
28.06.2019 05:52 12,5 C 11,1 C 11,1 C 89 % 1025,9 hPa 0,0 l/m 0 min 0 min 11 W/m 0,0 km/h (0 Bft) 100,00 %
28.06.2019 05:54 12,5 C 11,1 C 11,1 C 89 % 1026,0 hPa 0,0 l/m 0 min 0 min 11 W/m 3,2 km/h (1 Bft) 100,00 %
28.06.2019 05:56 12,4 C 11,1 C 11,1 C 89 % 1026,0 hPa 0,0 l/m 0 min 0 min 11 W/m 0,0 km/h (0 Bft) 97,87 %
28.06.2019 05:58 12,4 C 11,1 C 11,1 C 89 % 1026,0 hPa 0,0 l/m 0 min 0 min 11 W/m 0,0 km/h (0 Bft) 100,00 %
28.06.2019 06:00 12,4 C 11,1 C 11,1 C 89 % 1025,9 hPa 0,0 l/m 0 min 0 min 12 W/m 0,0 km/h (0 Bft) 100,00 %
28.06.2019 06:02 12,4 C 11,7 C 11,1 C 89 % 1025,9 hPa 0,0 l/m 0 min 0 min 12 W/m 0,0 km/h (0 Bft) 100,00 %
28.06.2019 06:04 12,4 C 11,7 C 11,1 C 89 % 1026,0 hPa 0,0 l/m 0 min 0 min 12 W/m 3,2 km/h (1 Bft) 100,00 %
28.06.2019 06:08 12,4 C 11,7 C 11,1 C 89 % 1026,1 hPa 0,0 l/m 0 min 0 min 13 W/m 3,2 km/h (1 Bft) 98,94 %
28.06.2019 06:10 12,4 C 11,7 C 11,1 C 89 % 1026,0 hPa 0,0 l/m 0 min 0 min 14 W/m 0,0 km/h (0 Bft) 100,00 %
28.06.2019 06:12 12,4 C 11,7 C 11,1 C 89 % 1025,9 hPa 0,0 l/m 0 min 0 min 14 W/m 0,0 km/h (0 Bft) 100,00 %
28.06.2019 06:14 12,4 C 11,7 C 11,1 C 90 % 1026,0 hPa 0,0 l/m 0 min 0 min 15 W/m 3,2 km/h (1 Bft) 97,87 %
28.06.2019 06:16 12,4 C 11,7 C 11,7 C 90 % 1026,0 hPa 0,0 l/m 0 min 0 min 16 W/m 9,7 km/h (2 Bft) 100,00 %
28.06.2019 06:18 12,4 C 11,7 C 11,7 C 90 % 1026,0 hPa 0,0 l/m 0 min 0 min 16 W/m 0,0 km/h (0 Bft) 100,00 %
28.06.2019 06:20 12,4 C 11,7 C 11,7 C 90 % 1026,0 hPa 0,0 l/m 0 min 0 min 16 W/m 3,2 km/h (1 Bft) 97,87 %
28.06.2019 06:22 12,4 C 11,7 C 11,7 C 90 % 1026,0 hPa 0,0 l/m 0 min 0 min 18 W/m 3,2 km/h (1 Bft) 100,00 %
28.06.2019 06:24 12,4 C 12,2 C 11,7 C 90 % 1026,0 hPa 0,0 l/m 0 min 0 min 18 W/m 3,2 km/h (1 Bft) 100,00 %
28.06.2019 06:26 12,4 C 12,2 C 11,7 C 90 % 1026,0 hPa 0,0 l/m 0 min 0 min 18 W/m 3,2 km/h (1 Bft) 100,00 %
28.06.2019 06:28 12,4 C 12,2 C 11,7 C 90 % 1026,1 hPa 0,0 l/m 0 min 0 min 18 W/m 3,2 km/h (1 Bft) 100,00 %
28.06.2019 06:30 12,4 C 12,2 C 11,7 C 90 % 1026,2 hPa 0,0 l/m 0 min 0 min 19 W/m 3,2 km/h (1 Bft) 100,00 %
28.06.2019 06:32 12,4 C 12,2 C 11,7 C 91 % 1026,1 hPa 0,0 l/m 0 min 0 min 19 W/m 3,2 km/h (1 Bft) 100,00 %
28.06.2019 06:34 12,5 C 12,2 C 11,7 C 91 % 1026,1 hPa 0,0 l/m 0 min 0 min 19 W/m 3,2 km/h (1 Bft) 100,00 %
28.06.2019 06:36 12,5 C 12,2 C 11,7 C 91 % 1026,1 hPa 0,0 l/m 0 min 0 min 21 W/m 3,2 km/h (1 Bft) 100,00 %
28.06.2019 06:38 12,5 C 12,2 C 11,7 C 91 % 1026,1 hPa 0,0 l/m 0 min 0 min 21 W/m 3,2 km/h (1 Bft) 100,00 %
28.06.2019 06:40 12,5 C 12,2 C 11,7 C 91 % 1026,1 hPa 0,0 l/m 0 min 0 min 21 W/m 3,2 km/h (1 Bft) 100,00 %
28.06.2019 06:42 12,6 C 12,2 C 11,7 C 91 % 1026,1 hPa 0,0 l/m 0 min 0 min 22 W/m 3,2 km/h (1 Bft) 97,87 %
28.06.2019 06:44 12,6 C 12,2 C 11,7 C 91 % 1026,1 hPa 0,0 l/m 0 min 0 min 23 W/m 0,0 km/h (0 Bft) 97,87 %
28.06.2019 06:46 12,6 C 12,2 C 12,2 C 91 % 1026,0 hPa 0,0 l/m 0 min 0 min 23 W/m 3,2 km/h (1 Bft) 100,00 %
28.06.2019 06:48 12,6 C 12,2 C 12,2 C 91 % 1026,1 hPa 0,0 l/m 0 min 0 min 24 W/m 0,0 km/h (0 Bft) 100,00 %
28.06.2019 06:50 12,6 C 12,8 C 12,2 C 91 % 1026,1 hPa 0,0 l/m 0 min 0 min 25 W/m 0,0 km/h (0 Bft) 100,00 %
28.06.2019 06:52 12,6 C 12,8 C 12,2 C 91 % 1026,1 hPa 0,0 l/m 0 min 0 min 25 W/m 0,0 km/h (0 Bft) 97,83 %
28.06.2019 06:54 12,7 C 12,8 C 12,2 C 91 % 1026,1 hPa 0,0 l/m 0 min 0 min 26 W/m 6,4 km/h (2 Bft) 100,00 %
28.06.2019 06:56 12,7 C 12,8 C 12,2 C 91 % 1026,1 hPa 0,0 l/m 0 min 0 min 26 W/m 6,4 km/h (2 Bft) 100,00 %
28.06.2019 06:58 12,7 C 12,8 C 12,2 C 91 % 1026,2 hPa 0,0 l/m 0 min 0 min 26 W/m 0,0 km/h (0 Bft) 100,00 %
28.06.2019 07:00 12,7 C 12,8 C 12,2 C 91 % 1026,2 hPa 0,0 l/m 0 min 0 min 28 W/m 0,0 km/h (0 Bft) 100,00 %
28.06.2019 07:02 12,7 C 12,8 C 12,2 C 91 % 1026,1 hPa 0,0 l/m 0 min 0 min 28 W/m 6,4 km/h (2 Bft) 97,87 %
28.06.2019 07:04 12,8 C 12,8 C 12,2 C 91 % 1026,2 hPa 0,0 l/m 0 min 0 min 29 W/m 6,4 km/h (2 Bft) 93,48 %
28.06.2019 07:06 12,8 C 12,8 C 12,2 C 92 % 1026,1 hPa 0,0 l/m 0 min 0 min 30 W/m 3,2 km/h (1 Bft) 95,74 %
28.06.2019 07:08 12,8 C 12,8 C 12,2 C 92 % 1026,1 hPa 0,0 l/m 0 min 0 min 30 W/m 3,2 km/h (1 Bft) 95,74 %
28.06.2019 07:10 12,8 C 12,8 C 12,2 C 92 % 1026,1 hPa 0,0 l/m 0 min 0 min 32 W/m 3,2 km/h (1 Bft) 95,74 %
28.06.2019 07:12 12,9 C 12,8 C 12,2 C 92 % 1026,1 hPa 0,0 l/m 0 min 0 min 32 W/m 6,4 km/h (2 Bft) 95,74 %
28.06.2019 07:14 12,9 C 13,3 C 12,8 C 92 % 1026,1 hPa 0,0 l/m 0 min 0 min 33 W/m 6,4 km/h (2 Bft) 93,48 %
28.06.2019 07:16 12,9 C 13,3 C 12,8 C 92 % 1026,0 hPa 0,0 l/m 0 min 0 min 33 W/m 9,7 km/h (2 Bft) 93,62 %
28.06.2019 07:18 13,0 C 13,3 C 12,8 C 92 % 1026,1 hPa 0,0 l/m 0 min 0 min 33 W/m 3,2 km/h (1 Bft) 95,74 %
28.06.2019 07:20 13,0 C 13,3 C 12,8 C 92 % 1026,1 hPa 0,0 l/m 0 min 0 min 34 W/m 9,7 km/h (2 Bft) 91,49 %
28.06.2019 07:22 13,1 C 13,3 C 12,8 C 92 % 1026,0 hPa 0,0 l/m 0 min 0 min 37 W/m 9,7 km/h (2 Bft) 91,49 %
28.06.2019 07:24 13,1 C 13,3 C 12,8 C 91 % 1026,0 hPa 0,0 l/m 0 min 0 min 37 W/m 3,2 km/h (1 Bft) 93,62 %
28.06.2019 07:26 13,1 C 13,3 C 12,8 C 91 % 1026,0 hPa 0,0 l/m 0 min 0 min 37 W/m 3,2 km/h (1 Bft) 93,48 %
28.06.2019 07:28 13,2 C 13,3 C 12,8 C 91 % 1026,1 hPa 0,0 l/m 0 min 0 min 39 W/m 3,2 km/h (1 Bft) 91,49 %
28.06.2019 07:30 13,2 C 13,9 C 12,8 C 91 % 1026,1 hPa 0,0 l/m 0 min 0 min 39 W/m 6,4 km/h (2 Bft) 93,62 %
28.06.2019 07:32 13,2 C 13,9 C 12,8 C 91 % 1026,0 hPa 0,0 l/m 0 min 0 min 40 W/m 9,7 km/h (2 Bft) 93,62 %
28.06.2019 07:34 13,3 C 13,9 C 12,8 C 91 % 1026,1 hPa 0,0 l/m 0 min 0 min 42 W/m 9,7 km/h (2 Bft) 93,62 %
28.06.2019 07:36 13,3 C 13,9 C 13,3 C 91 % 1026,0 hPa 0,0 l/m 0 min 0 min 40 W/m 6,4 km/h (2 Bft) 89,36 %
28.06.2019 07:38 13,4 C 13,9 C 13,3 C 91 % 1026,0 hPa 0,0 l/m 0 min 0 min 40 W/m 6,4 km/h (2 Bft) 93,48 %
28.06.2019 07:40 13,4 C 13,9 C 13,3 C 91 % 1026,0 hPa 0,0 l/m 0 min 0 min 42 W/m 6,4 km/h (2 Bft) 93,62 %
28.06.2019 07:42 13,4 C 13,9 C 13,3 C 91 % 1026,0 hPa 0,0 l/m 0 min 0 min 42 W/m 6,4 km/h (2 Bft) 93,62 %
28.06.2019 07:44 13,5 C 13,9 C 13,3 C 91 % 1026,0 hPa 0,0 l/m 0 min 0 min 43 W/m 6,4 km/h (2 Bft) 95,74 %
28.06.2019 07:46 13,6 C 13,9 C 13,3 C 90 % 1026,1 hPa 0,0 l/m 0 min 0 min 44 W/m 9,7 km/h (2 Bft) 93,62 %
28.06.2019 07:48 13,6 C 13,9 C 13,3 C 90 % 1026,1 hPa 0,0 l/m 0 min 0 min 44 W/m 9,7 km/h (2 Bft) 95,74 %
28.06.2019 07:50 13,6 C 13,9 C 13,3 C 90 % 1026,1 hPa 0,0 l/m 0 min 0 min 46 W/m 9,7 km/h (2 Bft) 93,48 %
28.06.2019 07:52 13,7 C 13,9 C 13,3 C 90 % 1026,1 hPa 0,0 l/m 0 min 0 min 47 W/m 12,9 km/h (3 Bft) 95,74 %
28.06.2019 07:54 13,7 C 14,4 C 13,3 C 90 % 1026,2 hPa 0,0 l/m 0 min 0 min 47 W/m 16,1 km/h (3 Bft) 95,74 %
28.06.2019 07:56 13,8 C 14,4 C 13,3 C 89 % 1026,1 hPa 0,0 l/m 0 min 0 min 47 W/m 16,1 km/h (3 Bft) 95,74 %
28.06.2019 07:58 13,8 C 15,0 C 13,9 C 89 % 1026,1 hPa 0,0 l/m 0 min 0 min 47 W/m 6,4 km/h (2 Bft) 100,00 %
28.06.2019 08:00 13,9 C 16,7 C 13,9 C 89 % 1026,1 hPa 0,0 l/m 0 min 0 min 47 W/m 19,3 km/h (3 Bft) 95,74 %
28.06.2019 08:02 14,0 C 17,8 C 13,9 C 88 % 1026,0 hPa 0,0 l/m 0 min 0 min 49 W/m 9,7 km/h (2 Bft) 97,83 %
28.06.2019 08:04 14,1 C 18,9 C 13,9 C 88 % 1026,0 hPa 0,0 l/m 0 min 0 min 49 W/m 9,7 km/h (2 Bft) 97,87 %
28.06.2019 08:06 14,2 C 19,4 C 13,9 C 88 % 1026,1 hPa 0,0 l/m 0 min 0 min 50 W/m 6,4 km/h (2 Bft) 97,87 %
28.06.2019 08:08 14,2 C 19,4 C 13,9 C 88 % 1026,0 hPa 0,0 l/m 0 min 0 min 51 W/m 9,7 km/h (2 Bft) 100,00 %
28.06.2019 08:10 14,2 C 19,4 C 13,9 C 88 % 1026,1 hPa 0,0 l/m 0 min 0 min 51 W/m 12,9 km/h (3 Bft) 100,00 %
28.06.2019 08:12 14,3 C 19,4 C 13,9 C 88 % 1026,1 hPa 0,0 l/m 0 min 0 min 52 W/m 9,7 km/h (2 Bft) 100,00 %
28.06.2019 08:14 14,4 C 20,0 C 14,4 C 87 % 1026,1 hPa 0,0 l/m 0 min 0 min 53 W/m 9,7 km/h (2 Bft) 100,00 %
28.06.2019 08:16 14,6 C 20,0 C 14,4 C 87 % 1026,1 hPa 0,0 l/m 0 min 0 min 53 W/m 9,7 km/h (2 Bft) 97,87 %
28.06.2019 08:18 14,7 C 20,6 C 14,4 C 87 % 1026,1 hPa 0,0 l/m 0 min 0 min 54 W/m 6,4 km/h (2 Bft) 100,00 %
28.06.2019 08:20 14,8 C 21,1 C 15,0 C 86 % 1026,1 hPa 0,0 l/m 0 min 0 min 54 W/m 12,9 km/h (3 Bft) 100,00 %
28.06.2019 08:22 15,0 C 20,6 C 15,0 C 86 % 1026,1 hPa 0,0 l/m 0 min 0 min 55 W/m 9,7 km/h (2 Bft) 100,00 %
28.06.2019 08:24 15,1 C 21,1 C 15,0 C 86 % 1026,1 hPa 0,0 l/m 0 min 0 min 58 W/m 6,4 km/h (2 Bft) 100,00 %
28.06.2019 08:26 15,2 C 20,6 C 15,6 C 85 % 1026,1 hPa 0,0 l/m 0 min 0 min 57 W/m 9,7 km/h (2 Bft) 100,00 %
28.06.2019 08:28 15,3 C 20,6 C 16,7 C 85 % 1026,0 hPa 0,0 l/m 0 min 0 min 69 W/m 9,7 km/h (2 Bft) 100,00 %
28.06.2019 08:30 15,5 C 21,1 C 18,9 C 85 % 1026,0 hPa 0,0 l/m 0 min 0 min 67 W/m 12,9 km/h (3 Bft) 100,00 %
28.06.2019 08:32 15,6 C 21,1 C 20,6 C 84 % 1026,0 hPa 0,0 l/m 0 min 0 min 63 W/m 9,7 km/h (2 Bft) 100,00 %
28.06.2019 08:34 15,7 C 21,1 C 21,7 C 83 % 1026,0 hPa 0,0 l/m 0 min 0 min 66 W/m 6,4 km/h (2 Bft) 100,00 %
28.06.2019 08:36 15,8 C 21,7 C 22,8 C 83 % 1026,0 hPa 0,0 l/m 0 min 0 min 71 W/m 9,7 km/h (2 Bft) 100,00 %
28.06.2019 08:38 16,0 C 22,2 C 23,9 C 83 % 1026,1 hPa 0,0 l/m 0 min 0 min 77 W/m 6,4 km/h (2 Bft) 100,00 %
28.06.2019 08:40 16,2 C 22,2 C 23,9 C 83 % 1026,0 hPa 0,0 l/m 0 min 0 min 80 W/m 6,4 km/h (2 Bft) 100,00 %
28.06.2019 08:42 16,3 C 22,2 C 23,9 C 82 % 1026,1 hPa 0,0 l/m 0 min 0 min 78 W/m 6,4 km/h (2 Bft) 97,87 %
28.06.2019 08:45 16,6 C 22,2 C 23,9 C 81 % 1026,0 hPa 0,0 l/m 0 min 0 min 83 W/m 9,7 km/h (2 Bft) 100,00 %
28.06.2019 08:46 16,6 C 22,2 C 24,4 C 81 % 1026,0 hPa 0,0 l/m 0 min 0 min 80 W/m 6,4 km/h (2 Bft) 100,00 %
28.06.2019 08:48 16,7 C 22,2 C 24,4 C 80 % 1026,0 hPa 0,0 l/m 0 min 0 min 78 W/m 16,1 km/h (3 Bft) 97,83 %
28.06.2019 08:50 16,8 C 22,2 C 25,0 C 80 % 1026,0 hPa 0,0 l/m 0 min 0 min 86 W/m 6,4 km/h (2 Bft) 100,00 %
28.06.2019 08:52 16,9 C 22,8 C 25,0 C 80 % 1026,1 hPa 0,0 l/m 0 min 0 min 93 W/m 9,7 km/h (2 Bft) 100,00 %
28.06.2019 08:54 17,0 C 22,8 C 25,0 C 79 % 1026,0 hPa 0,0 l/m 0 min 0 min 96 W/m 6,4 km/h (2 Bft) 100,00 %
28.06.2019 08:56 17,1 C 23,3 C 25,6 C 78 % 1026,1 hPa 0,0 l/m 0 min 0 min 114 W/m 9,7 km/h (2 Bft) 97,87 %
28.06.2019 08:58 17,2 C 22,2 C 24,4 C 78 % 1026,0 hPa 0,0 l/m 0 min 0 min 122 W/m 9,7 km/h (2 Bft) 97,87 %
28.06.2019 09:00 17,3 C 20,6 C 22,8 C 78 % 1026,0 hPa 0,0 l/m 0 min 0 min 120 W/m 9,7 km/h (2 Bft) 100,00 %
28.06.2019 09:02 17,3 C 21,7 C 23,3 C 77 % 1026,0 hPa 0,0 l/m 0 min 0 min 176 W/m 9,7 km/h (2 Bft) 100,00 %
28.06.2019 09:04 17,4 C 22,8 C 25,0 C 77 % 1025,9 hPa 0,0 l/m 0 min 0 min 185 W/m 9,7 km/h (2 Bft) 100,00 %
28.06.2019 09:06 17,5 C 22,8 C 25,0 C 77 % 1025,9 hPa 0,0 l/m 0 min 0 min 195 W/m 9,7 km/h (2 Bft) 100,00 %
28.06.2019 09:08 17,6 C 22,2 C 25,0 C 77 % 1025,9 hPa 0,0 l/m 0 min 0 min 247 W/m 9,7 km/h (2 Bft) 100,00 %
28.06.2019 09:10 17,7 C 23,9 C 25,6 C 76 % 1025,9 hPa 0,0 l/m 2 min 0 min 301 W/m 6,4 km/h (2 Bft) 100,00 %
28.06.2019 09:12 17,7 C 23,3 C 26,1 C 76 % 1025,9 hPa 0,0 l/m 2 min 0 min 340 W/m 9,7 km/h (2 Bft) 100,00 %
28.06.2019 09:14 17,8 C 23,3 C 26,7 C 76 % 1025,9 hPa 0,0 l/m 2 min 0 min 383 W/m 9,7 km/h (2 Bft) 100,00 %
28.06.2019 09:16 17,9 C 22,8 C 26,1 C 76 % 1026,0 hPa 0,0 l/m 2 min 0 min 430 W/m 12,9 km/h (3 Bft) 100,00 %
28.06.2019 09:18 18,0 C 23,9 C 26,1 C 76 % 1026,0 hPa 0,0 l/m 2 min 0 min 465 W/m 9,7 km/h (2 Bft) 100,00 %
28.06.2019 09:20 18,1 C 24,4 C 26,7 C 75 % 1026,0 hPa 0,0 l/m 2 min 0 min 495 W/m 6,4 km/h (2 Bft) 97,87 %
28.06.2019 09:22 18,2 C 25,0 C 27,2 C 75 % 1026,0 hPa 0,0 l/m 2 min 0 min 514 W/m 6,4 km/h (2 Bft) 100,00 %
28.06.2019 09:24 18,3 C 25,0 C 27,2 C 75 % 1026,0 hPa 0,0 l/m 2 min 0 min 529 W/m 9,7 km/h (2 Bft) 100,00 %
28.06.2019 09:26 18,4 C 24,4 C 26,7 C 74 % 1026,0 hPa 0,0 l/m 2 min 0 min 537 W/m 9,7 km/h (2 Bft) 100,00 %
28.06.2019 09:28 18,5 C 24,4 C 27,2 C 75 % 1026,0 hPa 0,0 l/m 2 min 0 min 542 W/m 6,4 km/h (2 Bft) 97,87 %
28.06.2019 09:30 18,6 C 25,0 C 27,8 C 74 % 1026,0 hPa 0,0 l/m 2 min 0 min 555 W/m 6,4 km/h (2 Bft) 97,83 %
28.06.2019 09:32 18,7 C 24,4 C 27,8 C 74 % 1025,9 hPa 0,0 l/m 2 min 0 min 561 W/m 9,7 km/h (2 Bft) 97,87 %
28.06.2019 09:34 18,7 C 24,4 C 27,8 C 73 % 1025,9 hPa 0,0 l/m 2 min 0 min 533 W/m 9,7 km/h (2 Bft) 97,87 %
28.06.2019 09:36 18,8 C 23,9 C 27,2 C 73 % 1025,9 hPa 0,0 l/m 2 min 0 min 561 W/m 9,7 km/h (2 Bft) 97,87 %
28.06.2019 09:38 18,9 C 24,4 C 27,8 C 73 % 1025,9 hPa 0,0 l/m 2 min 0 min 578 W/m 12,9 km/h (3 Bft) 95,83 %
28.06.2019 09:40 18,9 C 24,4 C 27,8 C 73 % 1025,9 hPa 0,0 l/m 2 min 0 min 581 W/m 16,1 km/h (3 Bft) 97,83 %
28.06.2019 09:42 19,0 C 23,9 C 27,8 C 72 % 1025,9 hPa 0,0 l/m 2 min 0 min 586 W/m 12,9 km/h (3 Bft) 97,87 %
28.06.2019 09:44 19,0 C 23,3 C 27,8 C 71 % 1025,9 hPa 0,0 l/m 2 min 0 min 588 W/m 12,9 km/h (3 Bft) 97,87 %
28.06.2019 09:46 19,0 C 24,4 C 27,8 C 71 % 1025,9 hPa 0,0 l/m 2 min 0 min 596 W/m 16,1 km/h (3 Bft) 97,87 %
28.06.2019 09:48 19,1 C 23,9 C 27,2 C 72 % 1025,9 hPa 0,0 l/m 2 min 0 min 608 W/m 9,7 km/h (2 Bft) 97,87 %
28.06.2019 09:50 19,2 C 25,0 C 27,8 C 73 % 1025,8 hPa 0,0 l/m 2 min 0 min 611 W/m 12,9 km/h (3 Bft) 97,87 %
28.06.2019 09:52 19,2 C 23,9 C 27,8 C 71 % 1025,8 hPa 0,0 l/m 2 min 0 min 616 W/m 12,9 km/h (3 Bft) 100,00 %
28.06.2019 09:54 19,2 C 24,4 C 27,8 C 71 % 1025,8 hPa 0,0 l/m 2 min 0 min 621 W/m 9,7 km/h (2 Bft) 95,74 %
28.06.2019 09:56 19,3 C 25,0 C 28,3 C 72 % 1025,8 hPa 0,0 l/m 2 min 0 min 627 W/m 9,7 km/h (2 Bft) 95,74 %
28.06.2019 09:58 19,3 C 25,0 C 28,3 C 72 % 1025,8 hPa 0,0 l/m 2 min 0 min 623 W/m 9,7 km/h (2 Bft) 97,87 %
28.06.2019 10:00 19,4 C 25,6 C 28,3 C 72 % 1025,8 hPa 0,0 l/m 2 min 0 min 632 W/m 9,7 km/h (2 Bft) 97,87 %
28.06.2019 10:02 19,5 C 26,1 C 28,9 C 71 % 1025,9 hPa 0,0 l/m 2 min 0 min 642 W/m 9,7 km/h (2 Bft) 97,87 %
28.06.2019 10:04 19,6 C 25,6 C 27,8 C 70 % 1025,8 hPa 0,0 l/m 2 min 0 min 652 W/m 6,4 km/h (2 Bft) 95,65 %
28.06.2019 10:06 19,7 C 25,6 C 27,8 C 70 % 1025,8 hPa 0,0 l/m 2 min 0 min 648 W/m 6,4 km/h (2 Bft) 95,74 %
28.06.2019 10:08 19,7 C 26,1 C 28,3 C 70 % 1025,7 hPa 0,0 l/m 2 min 0 min 656 W/m 6,4 km/h (2 Bft) 95,74 %
28.06.2019 10:10 19,8 C 26,7 C 28,9 C 70 % 1025,7 hPa 0,0 l/m 2 min 0 min 667 W/m 6,4 km/h (2 Bft) 95,74 %
28.06.2019 10:12 19,9 C 25,6 C 28,9 C 70 % 1025,8 hPa 0,0 l/m 2 min 0 min 669 W/m 9,7 km/h (2 Bft) 97,87 %
28.06.2019 10:14 19,9 C 26,1 C 28,9 C 70 % 1025,8 hPa 0,0 l/m 2 min 0 min 671 W/m 9,7 km/h (2 Bft) 97,87 %
28.06.2019 10:16 20,0 C 26,7 C 28,9 C 69 % 1025,7 hPa 0,0 l/m 2 min 0 min 679 W/m 6,4 km/h (2 Bft) 97,83 %
28.06.2019 10:18 20,1 C 26,7 C 28,9 C 69 % 1025,6 hPa 0,0 l/m 2 min 0 min 686 W/m 9,7 km/h (2 Bft) 97,87 %
28.06.2019 10:20 20,2 C 27,2 C 30,0 C 70 % 1025,6 hPa 0,0 l/m 2 min 0 min 696 W/m 6,4 km/h (2 Bft) 97,87 %
28.06.2019 10:22 20,3 C 27,8 C 30,0 C 71 % 1025,6 hPa 0,0 l/m 2 min 0 min 699 W/m 6,4 km/h (2 Bft) 95,74 %
28.06.2019 10:24 20,4 C 27,8 C 30,0 C 70 % 1025,6 hPa 0,0 l/m 2 min 0 min 699 W/m 9,7 km/h (2 Bft) 97,87 %
28.06.2019 10:26 20,5 C 27,8 C 30,0 C 69 % 1025,6 hPa 0,0 l/m 2 min 0 min 703 W/m 9,7 km/h (2 Bft) 95,74 %
28.06.2019 10:28 20,6 C 26,7 C 29,4 C 67 % 1025,6 hPa 0,0 l/m 2 min 0 min 707 W/m 12,9 km/h (3 Bft) 97,83 %
28.06.2019 10:30 20,6 C 27,2 C 28,9 C 66 % 1025,6 hPa 0,0 l/m 2 min 0 min 715 W/m 6,4 km/h (2 Bft) 95,74 %
28.06.2019 10:32 20,7 C 27,8 C 29,4 C 68 % 1025,6 hPa 0,0 l/m 2 min 0 min 720 W/m 6,4 km/h (2 Bft) 97,87 %
28.06.2019 10:34 20,8 C 26,7 C 29,4 C 67 % 1025,6 hPa 0,0 l/m 2 min 0 min 724 W/m 6,4 km/h (2 Bft) 97,87 %
28.06.2019 10:36 20,8 C 27,2 C 29,4 C 67 % 1025,6 hPa 0,0 l/m 2 min 0 min 724 W/m 9,7 km/h (2 Bft) 97,87 %
28.06.2019 10:38 20,8 C 26,7 C 28,9 C 66 % 1025,6 hPa 0,0 l/m 2 min 0 min 730 W/m 6,4 km/h (2 Bft) 97,87 %
28.06.2019 10:40 20,9 C 27,8 C 30,6 C 67 % 1025,6 hPa 0,0 l/m 2 min 0 min 738 W/m 12,9 km/h (3 Bft) 97,83 %
28.06.2019 10:42 20,9 C 27,2 C 29,4 C 66 % 1025,6 hPa 0,0 l/m 2 min 0 min 741 W/m 9,7 km/h (2 Bft) 97,87 %
28.06.2019 10:44 21,0 C 27,2 C 30,0 C 66 % 1025,6 hPa 0,0 l/m 2 min 0 min 746 W/m 9,7 km/h (2 Bft) 97,87 %
28.06.2019 10:46 21,1 C 27,8 C 30,6 C 67 % 1025,6 hPa 0,0 l/m 2 min 0 min 756 W/m 9,7 km/h (2 Bft) 97,87 %
28.06.2019 10:48 21,2 C 27,8 C 31,1 C 67 % 1025,6 hPa 0,0 l/m 2 min 0 min 749 W/m 6,4 km/h (2 Bft) 93,62 %
28.06.2019 10:50 21,3 C 27,8 C 31,1 C 66 % 1025,5 hPa 0,0 l/m 2 min 0 min 757 W/m 12,9 km/h (3 Bft) 95,65 %
28.06.2019 10:52 21,3 C 27,8 C 30,6 C 66 % 1025,5 hPa 0,0 l/m 2 min 0 min 768 W/m 6,4 km/h (2 Bft) 97,87 %
28.06.2019 10:54 21,4 C 28,3 C 31,1 C 66 % 1025,5 hPa 0,0 l/m 2 min 0 min 774 W/m 6,4 km/h (2 Bft) 97,87 %
28.06.2019 10:56 21,5 C 28,3 C 31,1 C 65 % 1025,5 hPa 0,0 l/m 2 min 0 min 776 W/m 9,7 km/h (2 Bft) 97,87 %
28.06.2019 10:58 21,6 C 27,8 C 30,6 C 65 % 1025,5 hPa 0,0 l/m 2 min 0 min 781 W/m 6,4 km/h (2 Bft) 100,00 %
28.06.2019 11:00 21,6 C 27,2 C 30,0 C 64 % 1025,5 hPa 0,0 l/m 2 min 0 min 788 W/m 12,9 km/h (3 Bft) 100,00 %
28.06.2019 11:02 21,6 C 28,3 C 30,0 C 64 % 1025,5 hPa 0,0 l/m 2 min 0 min 787 W/m 6,4 km/h (2 Bft) 100,00 %
28.06.2019 11:04 21,7 C 28,3 C 31,1 C 65 % 1025,4 hPa 0,0 l/m 2 min 0 min 786 W/m 6,4 km/h (2 Bft) 97,87 %
28.06.2019 11:06 21,8 C 29,4 C 31,7 C 66 % 1025,5 hPa 0,0 l/m 2 min 0 min 789 W/m 6,4 km/h (2 Bft) 97,87 %
28.06.2019 11:08 21,8 C 28,3 C 30,6 C 63 % 1025,5 hPa 0,0 l/m 2 min 0 min 793 W/m 12,9 km/h (3 Bft) 95,74 %
28.06.2019 11:10 21,8 C 28,9 C 31,7 C 64 % 1025,3 hPa 0,0 l/m 2 min 0 min 800 W/m 12,9 km/h (3 Bft) 100,00 %
28.06.2019 11:12 22,0 C 29,4 C 31,7 C 65 % 1025,4 hPa 0,0 l/m 2 min 0 min 807 W/m 9,7 km/h (2 Bft) 97,87 %
28.06.2019 11:14 22,1 C 28,9 C 31,7 C 63 % 1025,4 hPa 0,0 l/m 2 min 0 min 814 W/m 9,7 km/h (2 Bft) 100,00 %
28.06.2019 11:16 22,2 C 28,9 C 31,7 C 65 % 1025,4 hPa 0,0 l/m 2 min 0 min 817 W/m 9,7 km/h (2 Bft) 97,87 %
28.06.2019 11:18 22,2 C 27,8 C 30,6 C 63 % 1025,4 hPa 0,0 l/m 2 min 0 min 822 W/m 12,9 km/h (3 Bft) 97,87 %
28.06.2019 11:20 22,2 C 27,8 C 30,0 C 63 % 1025,4 hPa 0,0 l/m 2 min 0 min 820 W/m 9,7 km/h (2 Bft) 100,00 %
28.06.2019 11:22 22,2 C 28,3 C 30,6 C 63 % 1025,4 hPa 0,0 l/m 2 min 0 min 822 W/m 9,7 km/h (2 Bft) 95,74 %
28.06.2019 11:24 22,2 C 27,2 C 29,4 C 62 % 1025,3 hPa 0,0 l/m 2 min 0 min 824 W/m 16,1 km/h (3 Bft) 97,87 %
28.06.2019 11:26 22,2 C 28,3 C 30,6 C 64 % 1025,3 hPa 0,0 l/m 2 min 0 min 827 W/m 6,4 km/h (2 Bft) 95,65 %
28.06.2019 11:28 22,3 C 29,4 C 31,1 C 64 % 1025,4 hPa 0,0 l/m 2 min 0 min 831 W/m 6,4 km/h (2 Bft) 97,87 %
28.06.2019 11:30 22,4 C 29,4 C 31,7 C 62 % 1025,3 hPa 0,0 l/m 2 min 0 min 839 W/m 9,7 km/h (2 Bft) 97,87 %
28.06.2019 11:32 22,5 C 29,4 C 31,7 C 62 % 1025,3 hPa 0,0 l/m 2 min 0 min 846 W/m 9,7 km/h (2 Bft) 97,87 %
28.06.2019 11:34 22,6 C 30,6 C 32,8 C 63 % 1025,3 hPa 0,0 l/m 2 min 0 min 851 W/m 6,4 km/h (2 Bft) 97,87 %
28.06.2019 11:36 22,7 C 30,6 C 32,2 C 62 % 1025,3 hPa 0,0 l/m 2 min 0 min 850 W/m 9,7 km/h (2 Bft) 97,83 %
28.06.2019 11:38 22,8 C 30,6 C 32,2 C 62 % 1025,3 hPa 0,0 l/m 2 min 0 min 847 W/m 9,7 km/h (2 Bft) 97,87 %
28.06.2019 11:40 22,8 C 28,9 C 31,1 C 61 % 1025,3 hPa 0,0 l/m 2 min 0 min 859 W/m 9,7 km/h (2 Bft) 97,87 %
28.06.2019 11:42 22,9 C 28,9 C 32,8 C 60 % 1025,3 hPa 0,0 l/m 2 min 0 min 863 W/m 9,7 km/h (2 Bft) 97,87 %
28.06.2019 11:44 22,9 C 29,4 C 32,2 C 63 % 1025,3 hPa 0,0 l/m 2 min 0 min 867 W/m 9,7 km/h (2 Bft) 97,87 %
28.06.2019 11:46 22,9 C 29,4 C 31,7 C 61 % 1025,3 hPa 0,0 l/m 2 min 0 min 868 W/m 9,7 km/h (2 Bft) 95,74 %
28.06.2019 11:48 23,0 C 30,0 C 32,2 C 62 % 1025,3 hPa 0,0 l/m 2 min 0 min 873 W/m 6,4 km/h (2 Bft) 97,83 %
28.06.2019 11:50 22,9 C 28,9 C 30,6 C 58 % 1025,2 hPa 0,0 l/m 2 min 0 min 878 W/m 9,7 km/h (2 Bft) 97,87 %
28.06.2019 11:52 23,0 C 28,3 C 32,2 C 60 % 1025,1 hPa 0,0 l/m 2 min 0 min 880 W/m 9,7 km/h (2 Bft) 97,87 %
28.06.2019 11:54 23,0 C 28,9 C 32,8 C 59 % 1025,1 hPa 0,0 l/m 2 min 0 min 884 W/m 6,4 km/h (2 Bft) 95,74 %
28.06.2019 11:56 23,1 C 30,0 C 33,3 C 62 % 1025,1 hPa 0,0 l/m 2 min 0 min 886 W/m 9,7 km/h (2 Bft) 95,74 %
28.06.2019 11:58 23,2 C 30,0 C 33,9 C 61 % 1025,1 hPa 0,0 l/m 2 min 0 min 893 W/m 6,4 km/h (2 Bft) 97,87 %
28.06.2019 12:00 23,2 C 29,4 C 33,9 C 60 % 1025,1 hPa 0,0 l/m 2 min 0 min 896 W/m 9,7 km/h (2 Bft) 95,65 %
28.06.2019 12:02 23,2 C 28,9 C 33,3 C 59 % 1025,0 hPa 0,0 l/m 2 min 0 min 900 W/m 12,9 km/h (3 Bft) 95,74 %
28.06.2019 12:04 23,3 C 30,0 C 33,3 C 59 % 1025,0 hPa 0,0 l/m 2 min 0 min 900 W/m 6,4 km/h (2 Bft) 95,74 %
28.06.2019 12:08 23,4 C 30,0 C 32,8 C 59 % 1025,0 hPa 0,0 l/m 4 min 0 min 902 W/m 12,9 km/h (3 Bft) 94,68 %
28.06.2019 12:10 23,5 C 30,0 C 33,9 C 60 % 1025,0 hPa 0,0 l/m 2 min 0 min 909 W/m 9,7 km/h (2 Bft) 95,74 %
28.06.2019 12:12 23,5 C 29,4 C 33,3 C 60 % 1025,0 hPa 0,0 l/m 2 min 0 min 908 W/m 9,7 km/h (2 Bft) 93,48 %
28.06.2019 12:14 23,6 C 30,0 C 33,3 C 60 % 1025,0 hPa 0,0 l/m 2 min 0 min 913 W/m 16,1 km/h (3 Bft) 93,62 %
28.06.2019 12:16 23,6 C 30,6 C 33,9 C 61 % 1025,0 hPa 0,0 l/m 2 min 0 min 916 W/m 9,7 km/h (2 Bft) 95,74 %
28.06.2019 12:18 23,7 C 31,1 C 34,4 C 59 % 1024,9 hPa 0,0 l/m 2 min 0 min 920 W/m 9,7 km/h (2 Bft) 95,74 %
28.06.2019 12:20 23,8 C 30,6 C 35,0 C 60 % 1024,9 hPa 0,0 l/m 2 min 0 min 923 W/m 9,7 km/h (2 Bft) 95,74 %
28.06.2019 12:22 23,9 C 30,6 C 35,0 C 60 % 1024,9 hPa 0,0 l/m 2 min 0 min 922 W/m 9,7 km/h (2 Bft) 93,62 %
28.06.2019 12:24 23,9 C 30,0 C 34,4 C 58 % 1025,0 hPa 0,0 l/m 2 min 0 min 924 W/m 9,7 km/h (2 Bft) 93,48 %
28.06.2019 12:26 24,0 C 30,6 C 35,0 C 59 % 1024,9 hPa 0,0 l/m 2 min 0 min 927 W/m 9,7 km/h (2 Bft) 95,74 %
28.06.2019 12:28 24,0 C 30,6 C 34,4 C 58 % 1025,0 hPa 0,0 l/m 2 min 0 min 934 W/m 9,7 km/h (2 Bft) 95,74 %
28.06.2019 12:30 24,1 C 30,0 C 33,9 C 57 % 1025,0 hPa 0,0 l/m 2 min 0 min 934 W/m 9,7 km/h (2 Bft) 93,62 %
28.06.2019 12:32 24,1 C 30,6 C 33,9 C 58 % 1024,9 hPa 0,0 l/m 2 min 0 min 934 W/m 6,4 km/h (2 Bft) 95,74 %
28.06.2019 12:34 24,2 C 31,1 C 34,4 C 58 % 1024,9 hPa 0,0 l/m 2 min 0 min 932 W/m 6,4 km/h (2 Bft) 95,74 %
28.06.2019 12:36 24,3 C 31,1 C 35,0 C 58 % 1024,9 hPa 0,0 l/m 2 min 0 min 936 W/m 9,7 km/h (2 Bft) 95,65 %
28.06.2019 12:38 24,4 C 30,6 C 34,4 C 56 % 1024,9 hPa 0,0 l/m 2 min 0 min 937 W/m 9,7 km/h (2 Bft) 97,87 %
28.06.2019 12:40 24,4 C 31,1 C 34,4 C 57 % 1024,9 hPa 0,0 l/m 2 min 0 min 945 W/m 9,7 km/h (2 Bft) 97,87 %
28.06.2019 12:42 24,6 C 30,6 C 34,4 C 56 % 1024,9 hPa 0,0 l/m 2 min 0 min 944 W/m 12,9 km/h (3 Bft) 100,00 %
28.06.2019 12:44 24,7 C 31,1 C 35,6 C 60 % 1024,9 hPa 0,0 l/m 2 min 0 min 946 W/m 12,9 km/h (3 Bft) 100,00 %
28.06.2019 12:46 24,8 C 32,2 C 36,1 C 59 % 1024,9 hPa 0,0 l/m 2 min 0 min 949 W/m 6,4 km/h (2 Bft) 100,00 %
28.06.2019 12:48 24,9 C 31,7 C 35,6 C 55 % 1024,9 hPa 0,0 l/m 2 min 0 min 951 W/m 9,7 km/h (2 Bft) 97,87 %
28.06.2019 12:50 25,0 C 31,7 C 36,1 C 57 % 1024,8 hPa 0,0 l/m 2 min 0 min 950 W/m 6,4 km/h (2 Bft) 97,87 %
28.06.2019 12:52 25,1 C 31,7 C 34,4 C 55 % 1024,9 hPa 0,0 l/m 2 min 0 min 954 W/m 6,4 km/h (2 Bft) 100,00 %
28.06.2019 12:54 25,1 C 31,7 C 35,0 C 55 % 1024,9 hPa 0,0 l/m 2 min 0 min 952 W/m 6,4 km/h (2 Bft) 100,00 %
28.06.2019 12:56 25,1 C 31,1 C 35,6 C 56 % 1024,8 hPa 0,0 l/m 2 min 0 min 953 W/m 9,7 km/h (2 Bft) 100,00 %
28.06.2019 12:58 25,2 C 32,2 C 36,7 C 55 % 1024,8 hPa 0,0 l/m 2 min 0 min 961 W/m 3,2 km/h (1 Bft) 100,00 %
28.06.2019 13:00 25,3 C 31,7 C 36,7 C 54 % 1024,8 hPa 0,0 l/m 2 min 0 min 961 W/m 6,4 km/h (2 Bft) 100,00 %
28.06.2019 13:02 25,3 C 32,2 C 36,7 C 55 % 1024,8 hPa 0,0 l/m 2 min 0 min 959 W/m 6,4 km/h (2 Bft) 100,00 %
28.06.2019 13:04 25,4 C 32,2 C 36,1 C 55 % 1024,7 hPa 0,0 l/m 2 min 0 min 958 W/m 6,4 km/h (2 Bft) 100,00 %
28.06.2019 13:06 25,6 C 32,8 C 36,7 C 57 % 1024,8 hPa 0,0 l/m 2 min 0 min 959 W/m 9,7 km/h (2 Bft) 100,00 %
28.06.2019 13:08 25,7 C 31,1 C 35,6 C 54 % 1024,7 hPa 0,0 l/m 2 min 0 min 962 W/m 22,5 km/h (4 Bft) 100,00 %
28.06.2019 13:10 25,7 C 31,1 C 35,6 C 56 % 1024,7 hPa 0,0 l/m 2 min 0 min 964 W/m 9,7 km/h (2 Bft) 97,83 %
28.06.2019 13:12 25,8 C 32,2 C 37,2 C 55 % 1024,7 hPa 0,0 l/m 2 min 0 min 965 W/m 6,4 km/h (2 Bft) 100,00 %
28.06.2019 13:14 25,9 C 31,7 C 35,6 C 54 % 1024,7 hPa 0,0 l/m 2 min 0 min 967 W/m 6,4 km/h (2 Bft) 97,87 %
28.06.2019 13:16 25,9 C 31,7 C 36,7 C 55 % 1024,6 hPa 0,0 l/m 2 min 0 min 966 W/m 9,7 km/h (2 Bft) 97,87 %
28.06.2019 13:18 26,0 C 31,1 C 36,1 C 53 % 1024,6 hPa 0,0 l/m 2 min 0 min 967 W/m 6,4 km/h (2 Bft) 97,87 %
28.06.2019 13:20 26,0 C 32,2 C 37,2 C 55 % 1024,7 hPa 0,0 l/m 2 min 0 min 967 W/m 6,4 km/h (2 Bft) 97,87 %
28.06.2019 13:22 26,0 C 31,1 C 35,6 C 50 % 1024,7 hPa 0,0 l/m 2 min 0 min 967 W/m 9,7 km/h (2 Bft) 97,83 %
28.06.2019 13:24 26,0 C 31,1 C 36,1 C 53 % 1024,6 hPa 0,0 l/m 2 min 0 min 966 W/m 9,7 km/h (2 Bft) 100,00 %
28.06.2019 13:26 26,1 C 31,7 C 36,7 C 52 % 1024,6 hPa 0,0 l/m 2 min 0 min 966 W/m 6,4 km/h (2 Bft) 97,87 %
28.06.2019 13:28 26,1 C 32,2 C 36,1 C 51 % 1024,6 hPa 0,0 l/m 2 min 0 min 972 W/m 6,4 km/h (2 Bft) 95,74 %
28.06.2019 13:30 26,1 C 31,1 C 35,6 C 50 % 1024,7 hPa 0,0 l/m 2 min 0 min 968 W/m 9,7 km/h (2 Bft) 97,87 %
28.06.2019 13:32 26,2 C 32,2 C 36,7 C 55 % 1024,5 hPa 0,0 l/m 2 min 0 min 969 W/m 9,7 km/h (2 Bft) 97,87 %
28.06.2019 13:34 26,2 C 31,7 C 36,1 C 54 % 1024,6 hPa 0,0 l/m 2 min 0 min 971 W/m 9,7 km/h (2 Bft) 97,83 %
28.06.2019 13:36 26,3 C 31,7 C 36,7 C 52 % 1024,5 hPa 0,0 l/m 2 min 0 min 971 W/m 9,7 km/h (2 Bft) 97,87 %
28.06.2019 13:38 26,4 C 32,2 C 37,8 C 53 % 1024,5 hPa 0,0 l/m 2 min 0 min 976 W/m 6,4 km/h (2 Bft) 97,87 %
28.06.2019 13:40 26,4 C 32,2 C 37,8 C 53 % 1024,4 hPa 0,0 l/m 2 min 0 min 973 W/m 9,7 km/h (2 Bft) 97,87 %
28.06.2019 13:42 26,4 C 31,1 C 37,2 C 49 % 1024,5 hPa 0,0 l/m 2 min 0 min 971 W/m 9,7 km/h (2 Bft) 97,87 %
28.06.2019 13:44 26,4 C 30,6 C 36,1 C 52 % 1024,4 hPa 0,0 l/m 2 min 0 min 975 W/m 9,7 km/h (2 Bft) 97,87 %
28.06.2019 13:46 26,4 C 30,6 C 36,1 C 51 % 1024,4 hPa 0,0 l/m 2 min 0 min 976 W/m 6,4 km/h (2 Bft) 97,83 %
28.06.2019 13:48 26,4 C 30,6 C 36,1 C 49 % 1024,4 hPa 0,0 l/m 2 min 0 min 973 W/m 6,4 km/h (2 Bft) 97,87 %
28.06.2019 13:50 26,4 C 31,1 C 36,1 C 50 % 1024,4 hPa 0,0 l/m 2 min 0 min 973 W/m 9,7 km/h (2 Bft) 97,87 %
28.06.2019 13:52 26,4 C 32,2 C 37,2 C 51 % 1024,3 hPa 0,0 l/m 2 min 0 min 975 W/m 6,4 km/h (2 Bft) 97,87 %
28.06.2019 13:54 26,5 C 31,7 C 36,7 C 49 % 1024,3 hPa 0,0 l/m 2 min 0 min 970 W/m 9,7 km/h (2 Bft) 97,87 %
28.06.2019 13:56 26,6 C 31,7 C 37,2 C 52 % 1024,4 hPa 0,0 l/m 2 min 0 min 971 W/m 9,7 km/h (2 Bft) 97,87 %
28.06.2019 13:58 26,6 C 31,1 C 36,7 C 50 % 1024,4 hPa 0,0 l/m 2 min 0 min 971 W/m 16,1 km/h (3 Bft) 95,65 %
28.06.2019 14:00 26,6 C 31,1 C 37,2 C 53 % 1024,3 hPa 0,0 l/m 2 min 0 min 970 W/m 9,7 km/h (2 Bft) 97,87 %
28.06.2019 14:02 26,6 C 31,1 C 37,2 C 51 % 1024,2 hPa 0,0 l/m 2 min 0 min 973 W/m 9,7 km/h (2 Bft) 97,87 %
28.06.2019 14:04 26,7 C 31,7 C 37,2 C 49 % 1024,2 hPa 0,0 l/m 2 min 0 min 973 W/m 9,7 km/h (2 Bft) 97,87 %
28.06.2019 14:06 26,7 C 31,1 C 37,8 C 52 % 1024,2 hPa 0,0 l/m 2 min 0 min 968 W/m 9,7 km/h (2 Bft) 97,87 %
28.06.2019 14:08 26,7 C 31,1 C 37,2 C 48 % 1024,2 hPa 0,0 l/m 2 min 0 min 970 W/m 9,7 km/h (2 Bft) 97,87 %
28.06.2019 14:10 26,7 C 30,6 C 36,7 C 51 % 1024,3 hPa 0,0 l/m 2 min 0 min 969 W/m 12,9 km/h (3 Bft) 100,00 %
28.06.2019 14:12 26,8 C 31,1 C 36,7 C 50 % 1024,3 hPa 0,0 l/m 2 min 0 min 968 W/m 9,7 km/h (2 Bft) 100,00 %
28.06.2019 14:14 26,8 C 32,2 C 37,2 C 50 % 1024,2 hPa 0,0 l/m 2 min 0 min 965 W/m 6,4 km/h (2 Bft) 100,00 %
28.06.2019 14:16 26,9 C 32,2 C 37,8 C 51 % 1024,1 hPa 0,0 l/m 2 min 0 min 966 W/m 9,7 km/h (2 Bft) 100,00 %
28.06.2019 14:18 26,9 C 32,2 C 38,3 C 50 % 1024,1 hPa 0,0 l/m 2 min 0 min 967 W/m 9,7 km/h (2 Bft) 100,00 %
28.06.2019 14:20 27,0 C 32,2 C 37,8 C 49 % 1024,1 hPa 0,0 l/m 2 min 0 min 964 W/m 9,7 km/h (2 Bft) 100,00 %
28.06.2019 14:22 27,1 C 32,2 C 38,3 C 50 % 1024,2 hPa 0,0 l/m 2 min 0 min 962 W/m 6,4 km/h (2 Bft) 100,00 %
28.06.2019 14:24 27,2 C 32,2 C 38,3 C 51 % 1024,1 hPa 0,0 l/m 2 min 0 min 962 W/m 6,4 km/h (2 Bft) 100,00 %
28.06.2019 14:26 27,3 C 32,8 C 38,3 C 49 % 1024,1 hPa 0,0 l/m 2 min 0 min 958 W/m 9,7 km/h (2 Bft) 100,00 %
28.06.2019 14:28 27,4 C 31,7 C 37,8 C 48 % 1024,2 hPa 0,0 l/m 2 min 0 min 954 W/m 9,7 km/h (2 Bft) 97,87 %
28.06.2019 14:30 27,4 C 32,2 C 37,8 C 49 % 1024,2 hPa 0,0 l/m 2 min 0 min 957 W/m 6,4 km/h (2 Bft) 100,00 %
28.06.2019 14:32 27,5 C 31,7 C 37,8 C 47 % 1024,1 hPa 0,0 l/m 2 min 0 min 958 W/m 9,7 km/h (2 Bft) 95,65 %
28.06.2019 14:34 27,6 C 31,7 C 38,3 C 48 % 1024,0 hPa 0,0 l/m 2 min 0 min 958 W/m 9,7 km/h (2 Bft) 95,74 %
28.06.2019 14:36 27,6 C 32,2 C 37,8 C 49 % 1024,0 hPa 0,0 l/m 2 min 0 min 957 W/m 6,4 km/h (2 Bft) 97,87 %
28.06.2019 14:38 27,7 C 32,2 C 37,2 C 49 % 1024,0 hPa 0,0 l/m 2 min 0 min 950 W/m 6,4 km/h (2 Bft) 97,87 %
28.06.2019 14:40 27,8 C 32,2 C 37,2 C 49 % 1024,1 hPa 0,0 l/m 2 min 0 min 949 W/m 6,4 km/h (2 Bft) 95,74 %
28.06.2019 14:42 27,8 C 32,2 C 37,8 C 48 % 1024,1 hPa 0,0 l/m 2 min 0 min 950 W/m 9,7 km/h (2 Bft) 97,87 %
28.06.2019 14:44 27,8 C 31,1 C 37,2 C 47 % 1024,1 hPa 0,0 l/m 2 min 0 min 947 W/m 9,7 km/h (2 Bft) 97,83 %
28.06.2019 14:46 27,8 C 31,7 C 36,1 C 47 % 1024,0 hPa 0,0 l/m 2 min 0 min 947 W/m 9,7 km/h (2 Bft) 97,87 %
28.06.2019 14:48 27,8 C 31,7 C 35,0 C 48 % 1024,0 hPa 0,0 l/m 2 min 0 min 948 W/m 9,7 km/h (2 Bft) 95,74 %
28.06.2019 14:50 27,8 C 31,1 C 35,6 C 45 % 1024,0 hPa 0,0 l/m 2 min 0 min 947 W/m 6,4 km/h (2 Bft) 95,74 %
28.06.2019 14:52 27,9 C 31,7 C 35,6 C 48 % 1023,9 hPa 0,0 l/m 2 min 0 min 942 W/m 6,4 km/h (2 Bft) 97,87 %
28.06.2019 14:54 27,9 C 31,7 C 34,4 C 46 % 1024,0 hPa 0,0 l/m 2 min 0 min 939 W/m 6,4 km/h (2 Bft) 95,74 %
28.06.2019 14:56 27,9 C 31,7 C 34,4 C 47 % 1023,8 hPa 0,0 l/m 2 min 0 min 937 W/m 6,4 km/h (2 Bft) 95,65 %
28.06.2019 14:58 28,1 C 32,2 C 32,2 C 48 % 1023,9 hPa 0,0 l/m 2 min 0 min 940 W/m 9,7 km/h (2 Bft) 93,62 %
28.06.2019 15:00 28,2 C 31,7 C 31,1 C 47 % 1023,9 hPa 0,0 l/m 2 min 0 min 934 W/m 6,4 km/h (2 Bft) 95,74 %
28.06.2019 15:02 28,2 C 31,7 C 30,6 C 45 % 1023,9 hPa 0,0 l/m 2 min 0 min 935 W/m 6,4 km/h (2 Bft) 97,87 %
28.06.2019 15:04 28,2 C 31,7 C 30,0 C 48 % 1023,8 hPa 0,0 l/m 2 min 0 min 933 W/m 9,7 km/h (2 Bft) 95,74 %
28.06.2019 15:06 28,2 C 31,1 C 30,0 C 44 % 1023,9 hPa 0,0 l/m 2 min 0 min 930 W/m 9,7 km/h (2 Bft) 93,62 %
28.06.2019 15:08 28,3 C 31,7 C 29,4 C 46 % 1023,8 hPa 0,0 l/m 2 min 0 min 927 W/m 6,4 km/h (2 Bft) 93,48 %
28.06.2019 15:10 28,3 C 32,2 C 28,9 C 46 % 1023,8 hPa 0,0 l/m 2 min 0 min 926 W/m 9,7 km/h (2 Bft) 93,62 %
28.06.2019 15:12 28,3 C 30,6 C 29,4 C 45 % 1023,8 hPa 0,0 l/m 2 min 0 min 923 W/m 9,7 km/h (2 Bft) 95,74 %
28.06.2019 15:14 28,3 C 31,1 C 28,9 C 47 % 1023,8 hPa 0,0 l/m 2 min 0 min 922 W/m 9,7 km/h (2 Bft) 95,74 %
28.06.2019 15:16 28,3 C 30,6 C 28,9 C 44 % 1023,7 hPa 0,0 l/m 2 min 0 min 919 W/m 9,7 km/h (2 Bft) 95,74 %
28.06.2019 15:18 28,3 C 30,6 C 28,9 C 44 % 1023,7 hPa 0,0 l/m 2 min 0 min 912 W/m 9,7 km/h (2 Bft) 97,83 %
28.06.2019 15:20 28,3 C 30,6 C 28,3 C 48 % 1023,7 hPa 0,0 l/m 2 min 0 min 911 W/m 19,3 km/h (3 Bft) 97,87 %
28.06.2019 15:22 28,3 C 30,6 C 28,3 C 47 % 1023,7 hPa 0,0 l/m 2 min 0 min 905 W/m 9,7 km/h (2 Bft) 97,87 %
28.06.2019 15:24 28,3 C 31,1 C 28,9 C 48 % 1023,7 hPa 0,0 l/m 2 min 0 min 902 W/m 9,7 km/h (2 Bft) 95,74 %
28.06.2019 15:26 28,4 C 31,1 C 28,9 C 47 % 1023,6 hPa 0,0 l/m 2 min 0 min 899 W/m 9,7 km/h (2 Bft) 95,74 %
28.06.2019 15:28 28,5 C 31,1 C 28,9 C 49 % 1023,7 hPa 0,0 l/m 2 min 0 min 897 W/m 6,4 km/h (2 Bft) 97,87 %
28.06.2019 15:30 28,5 C 30,6 C 29,4 C 45 % 1023,7 hPa 0,0 l/m 2 min 0 min 894 W/m 6,4 km/h (2 Bft) 97,83 %
28.06.2019 15:32 28,4 C 30,0 C 28,9 C 46 % 1023,5 hPa 0,0 l/m 2 min 0 min 895 W/m 9,7 km/h (2 Bft) 95,74 %
28.06.2019 15:34 28,4 C 30,0 C 28,3 C 44 % 1023,5 hPa 0,0 l/m 2 min 0 min 891 W/m 9,7 km/h (2 Bft) 97,87 %
28.06.2019 15:36 28,4 C 30,0 C 28,9 C 47 % 1023,5 hPa 0,0 l/m 2 min 0 min 887 W/m 9,7 km/h (2 Bft) 97,87 %
28.06.2019 15:38 28,4 C 30,0 C 28,9 C 45 % 1023,6 hPa 0,0 l/m 2 min 0 min 886 W/m 9,7 km/h (2 Bft) 97,87 %
28.06.2019 15:40 28,4 C 29,4 C 28,9 C 44 % 1023,5 hPa 0,0 l/m 2 min 0 min 883 W/m 9,7 km/h (2 Bft) 97,87 %
28.06.2019 15:42 28,4 C 30,0 C 28,9 C 46 % 1023,4 hPa 0,0 l/m 2 min 0 min 877 W/m 6,4 km/h (2 Bft) 97,83 %
28.06.2019 15:44 28,4 C 29,4 C 28,3 C 46 % 1023,5 hPa 0,0 l/m 2 min 0 min 873 W/m 16,1 km/h (3 Bft) 100,00 %
28.06.2019 15:46 28,4 C 29,4 C 28,9 C 45 % 1023,4 hPa 0,0 l/m 2 min 0 min 869 W/m 9,7 km/h (2 Bft) 100,00 %
28.06.2019 15:48 28,5 C 30,6 C 28,9 C 47 % 1023,4 hPa 0,0 l/m 2 min 0 min 867 W/m 6,4 km/h (2 Bft) 100,00 %
28.06.2019 15:50 28,6 C 30,0 C 28,9 C 45 % 1023,4 hPa 0,0 l/m 2 min 0 min 864 W/m 6,4 km/h (2 Bft) 97,87 %
28.06.2019 15:52 28,6 C 30,0 C 28,9 C 45 % 1023,5 hPa 0,0 l/m 2 min 0 min 864 W/m 6,4 km/h (2 Bft) 100,00 %
28.06.2019 15:54 28,7 C 30,0 C 28,3 C 42 % 1023,4 hPa 0,0 l/m 2 min 0 min 861 W/m 9,7 km/h (2 Bft) 97,83 %
28.06.2019 15:56 28,7 C 30,0 C 28,9 C 45 % 1023,3 hPa 0,0 l/m 2 min 0 min 859 W/m 6,4 km/h (2 Bft) 100,00 %
28.06.2019 15:58 28,7 C 30,0 C 28,3 C 42 % 1023,4 hPa 0,0 l/m 2 min 0 min 855 W/m 9,7 km/h (2 Bft) 100,00 %
28.06.2019 16:00 28,8 C 30,0 C 28,9 C 43 % 1023,4 hPa 0,0 l/m 2 min 0 min 849 W/m 9,7 km/h (2 Bft) 100,00 %
28.06.2019 16:02 28,8 C 29,4 C 28,9 C 44 % 1023,4 hPa 0,0 l/m 2 min 0 min 846 W/m 9,7 km/h (2 Bft) 100,00 %
28.06.2019 16:04 28,9 C 29,4 C 28,9 C 45 % 1023,3 hPa 0,0 l/m 2 min 0 min 844 W/m 9,7 km/h (2 Bft) 97,87 %
28.06.2019 16:06 28,9 C 29,4 C 28,9 C 46 % 1023,3 hPa 0,0 l/m 2 min 0 min 844 W/m 9,7 km/h (2 Bft) 97,83 %
28.06.2019 16:08 28,9 C 29,4 C 28,9 C 46 % 1023,2 hPa 0,0 l/m 2 min 0 min 834 W/m 12,9 km/h (3 Bft) 100,00 %
28.06.2019 16:10 29,0 C 29,4 C 28,9 C 44 % 1023,2 hPa 0,0 l/m 2 min 0 min 829 W/m 9,7 km/h (2 Bft) 97,87 %
28.06.2019 16:12 29,0 C 28,9 C 28,9 C 43 % 1023,1 hPa 0,0 l/m 2 min 0 min 824 W/m 12,9 km/h (3 Bft) 100,00 %
28.06.2019 16:14 29,0 C 28,9 C 28,9 C 44 % 1023,2 hPa 0,0 l/m 2 min 0 min 818 W/m 9,7 km/h (2 Bft) 100,00 %
28.06.2019 16:16 29,0 C 28,3 C 29,4 C 43 % 1023,1 hPa 0,0 l/m 2 min 0 min 812 W/m 9,7 km/h (2 Bft) 100,00 %
28.06.2019 16:18 29,1 C 28,9 C 29,4 C 46 % 1023,1 hPa 0,0 l/m 2 min 0 min 809 W/m 9,7 km/h (2 Bft) 100,00 %
28.06.2019 16:20 29,1 C 28,9 C 29,4 C 44 % 1023,1 hPa 0,0 l/m 2 min 0 min 809 W/m 9,7 km/h (2 Bft) 95,74 %
28.06.2019 16:22 29,2 C 28,9 C 29,4 C 45 % 1023,0 hPa 0,0 l/m 2 min 0 min 803 W/m 6,4 km/h (2 Bft) 100,00 %
28.06.2019 16:24 29,3 C 28,9 C 30,0 C 43 % 1023,1 hPa 0,0 l/m 2 min 0 min 799 W/m 9,7 km/h (2 Bft) 100,00 %
28.06.2019 16:26 29,3 C 28,3 C 30,0 C 43 % 1023,1 hPa 0,0 l/m 2 min 0 min 794 W/m 6,4 km/h (2 Bft) 95,74 %
28.06.2019 16:28 29,3 C 28,3 C 30,0 C 43 % 1023,1 hPa 0,0 l/m 2 min 0 min 789 W/m 9,7 km/h (2 Bft) 100,00 %
28.06.2019 16:30 29,4 C 28,3 C 30,6 C 44 % 1023,1 hPa 0,0 l/m 2 min 0 min 785 W/m 9,7 km/h (2 Bft) 100,00 %
28.06.2019 16:32 29,4 C 27,8 C 31,7 C 42 % 1023,1 hPa 0,0 l/m 2 min 0 min 779 W/m 16,1 km/h (3 Bft) 97,87 %
28.06.2019 16:34 29,4 C 27,8 C 31,7 C 43 % 1023,1 hPa 0,0 l/m 2 min 0 min 775 W/m 9,7 km/h (2 Bft) 100,00 %
28.06.2019 16:36 29,4 C 27,8 C 31,1 C 44 % 1023,1 hPa 0,0 l/m 2 min 0 min 774 W/m 6,4 km/h (2 Bft) 100,00 %
28.06.2019 16:38 29,4 C 27,8 C 30,6 C 43 % 1023,1 hPa 0,0 l/m 2 min 0 min 770 W/m 9,7 km/h (2 Bft) 100,00 %
28.06.2019 16:40 29,4 C 28,3 C 30,6 C 44 % 1023,1 hPa 0,0 l/m 2 min 0 min 763 W/m 9,7 km/h (2 Bft) 100,00 %
28.06.2019 16:42 29,4 C 28,3 C 30,6 C 43 % 1023,1 hPa 0,0 l/m 2 min 0 min 758 W/m 9,7 km/h (2 Bft) 100,00 %
28.06.2019 16:44 29,5 C 28,3 C 30,0 C 42 % 1023,1 hPa 0,0 l/m 2 min 0 min 752 W/m 9,7 km/h (2 Bft) 100,00 %
28.06.2019 16:46 29,5 C 28,3 C 29,4 C 43 % 1023,1 hPa 0,0 l/m 2 min 0 min 748 W/m 9,7 km/h (2 Bft) 97,87 %
28.06.2019 16:48 29,6 C 28,3 C 29,4 C 44 % 1023,1 hPa 0,0 l/m 2 min 0 min 743 W/m 6,4 km/h (2 Bft) 100,00 %
28.06.2019 16:50 29,6 C 28,9 C 29,4 C 45 % 1023,1 hPa 0,0 l/m 2 min 0 min 741 W/m 6,4 km/h (2 Bft) 100,00 %
28.06.2019 16:52 29,6 C 28,3 C 28,9 C 41 % 1023,0 hPa 0,0 l/m 2 min 0 min 737 W/m 9,7 km/h (2 Bft) 97,83 %
28.06.2019 16:54 29,6 C 27,8 C 28,9 C 42 % 1023,0 hPa 0,0 l/m 2 min 0 min 732 W/m 9,7 km/h (2 Bft) 97,87 %
28.06.2019 16:56 29,5 C 27,8 C 28,3 C 44 % 1023,0 hPa 0,0 l/m 2 min 0 min 725 W/m 9,7 km/h (2 Bft) 97,87 %
28.06.2019 16:58 29,4 C 27,8 C 28,3 C 40 % 1023,0 hPa 0,0 l/m 2 min 0 min 724 W/m 6,4 km/h (2 Bft) 95,74 %
28.06.2019 17:00 29,4 C 27,8 C 28,3 C 41 % 1023,0 hPa 0,0 l/m 2 min 0 min 719 W/m 16,1 km/h (3 Bft) 97,87 %
28.06.2019 17:02 29,4 C 28,3 C 28,3 C 42 % 1023,0 hPa 0,0 l/m 2 min 0 min 715 W/m 9,7 km/h (2 Bft) 97,87 %
28.06.2019 17:04 29,4 C 27,8 C 28,9 C 42 % 1022,9 hPa 0,0 l/m 2 min 0 min 710 W/m 12,9 km/h (3 Bft) 97,83 %
28.06.2019 17:06 29,4 C 28,3 C 28,3 C 42 % 1022,8 hPa 0,0 l/m 2 min 0 min 706 W/m 9,7 km/h (2 Bft) 97,87 %
28.06.2019 17:08 29,4 C 28,3 C 28,3 C 42 % 1022,9 hPa 0,0 l/m 2 min 0 min 699 W/m 9,7 km/h (2 Bft) 97,87 %
28.06.2019 17:10 29,4 C 27,8 C 28,3 C 42 % 1022,9 hPa 0,0 l/m 2 min 0 min 693 W/m 9,7 km/h (2 Bft) 97,87 %
28.06.2019 17:12 29,4 C 27,8 C 28,3 C 43 % 1022,8 hPa 0,0 l/m 2 min 0 min 690 W/m 6,4 km/h (2 Bft) 95,74 %
28.06.2019 17:14 29,4 C 27,8 C 28,9 C 44 % 1022,8 hPa 0,0 l/m 2 min 0 min 683 W/m 6,4 km/h (2 Bft) 97,87 %
28.06.2019 17:16 29,4 C 28,3 C 29,4 C 43 % 1022,8 hPa 0,0 l/m 2 min 0 min 679 W/m 6,4 km/h (2 Bft) 97,83 %
28.06.2019 17:18 29,4 C 28,3 C 30,6 C 43 % 1022,8 hPa 0,0 l/m 2 min 0 min 676 W/m 6,4 km/h (2 Bft) 97,87 %
28.06.2019 17:20 29,4 C 27,8 C 30,6 C 43 % 1022,8 hPa 0,0 l/m 2 min 0 min 671 W/m 6,4 km/h (2 Bft) 95,74 %
28.06.2019 17:22 29,4 C 27,8 C 30,0 C 42 % 1022,8 hPa 0,0 l/m 2 min 0 min 663 W/m 9,7 km/h (2 Bft) 93,62 %
28.06.2019 17:24 29,5 C 28,3 C 30,0 C 45 % 1022,8 hPa 0,0 l/m 2 min 0 min 657 W/m 6,4 km/h (2 Bft) 93,62 %
28.06.2019 17:26 29,5 C 28,3 C 28,9 C 43 % 1022,8 hPa 0,0 l/m 2 min 0 min 650 W/m 9,7 km/h (2 Bft) 93,48 %
28.06.2019 17:28 29,5 C 28,3 C 28,3 C 41 % 1022,7 hPa 0,0 l/m 2 min 0 min 645 W/m 6,4 km/h (2 Bft) 95,74 %
28.06.2019 17:30 29,5 C 28,3 C 28,3 C 41 % 1022,8 hPa 0,0 l/m 2 min 0 min 640 W/m 9,7 km/h (2 Bft) 95,74 %
28.06.2019 17:32 29,5 C 27,8 C 28,3 C 40 % 1022,8 hPa 0,0 l/m 2 min 0 min 634 W/m 9,7 km/h (2 Bft) 93,62 %
28.06.2019 17:34 29,6 C 28,3 C 27,8 C 41 % 1022,8 hPa 0,0 l/m 2 min 0 min 630 W/m 6,4 km/h (2 Bft) 93,62 %
28.06.2019 17:36 29,6 C 28,3 C 27,8 C 41 % 1022,7 hPa 0,0 l/m 2 min 0 min 626 W/m 6,4 km/h (2 Bft) 93,62 %
28.06.2019 17:38 29,6 C 28,3 C 27,8 C 43 % 1022,7 hPa 0,0 l/m 2 min 0 min 622 W/m 6,4 km/h (2 Bft) 95,65 %
28.06.2019 17:40 29,6 C 28,3 C 27,8 C 43 % 1022,7 hPa 0,0 l/m 2 min 0 min 616 W/m 6,4 km/h (2 Bft) 95,74 %
28.06.2019 17:42 29,6 C 27,8 C 27,8 C 41 % 1022,7 hPa 0,0 l/m 2 min 0 min 610 W/m 9,7 km/h (2 Bft) 93,62 %
28.06.2019 17:44 29,6 C 27,8 C 27,8 C 43 % 1022,7 hPa 0,0 l/m 2 min 0 min 604 W/m 6,4 km/h (2 Bft) 93,62 %
28.06.2019 17:46 29,6 C 27,8 C 27,8 C 41 % 1022,7 hPa 0,0 l/m 2 min 0 min 598 W/m 9,7 km/h (2 Bft) 91,49 %
28.06.2019 17:48 29,6 C 27,8 C 27,8 C 43 % 1022,7 hPa 0,0 l/m 2 min 0 min 591 W/m 6,4 km/h (2 Bft) 93,62 %
28.06.2019 17:50 29,5 C 28,3 C 27,8 C 42 % 1022,7 hPa 0,0 l/m 2 min 0 min 586 W/m 6,4 km/h (2 Bft) 93,48 %
28.06.2019 17:52 29,5 C 27,8 C 27,8 C 42 % 1022,7 hPa 0,0 l/m 2 min 0 min 582 W/m 12,9 km/h (3 Bft) 93,62 %
28.06.2019 17:54 29,4 C 28,3 C 27,8 C 42 % 1022,7 hPa 0,0 l/m 2 min 0 min 575 W/m 6,4 km/h (2 Bft) 93,62 %
28.06.2019 17:56 29,4 C 28,3 C 27,8 C 43 % 1022,7 hPa 0,0 l/m 2 min 0 min 569 W/m 6,4 km/h (2 Bft) 91,49 %
28.06.2019 17:58 29,4 C 28,3 C 27,8 C 44 % 1022,6 hPa 0,0 l/m 2 min 0 min 563 W/m 6,4 km/h (2 Bft) 93,62 %
28.06.2019 18:00 29,4 C 27,8 C 27,8 C 42 % 1022,7 hPa 0,0 l/m 2 min 0 min 557 W/m 6,4 km/h (2 Bft) 93,62 %
28.06.2019 18:02 29,4 C 27,8 C 27,8 C 42 % 1022,6 hPa 0,0 l/m 2 min 0 min 552 W/m 6,4 km/h (2 Bft) 95,65 %
28.06.2019 18:04 29,4 C 27,8 C 28,3 C 43 % 1022,6 hPa 0,0 l/m 2 min 0 min 547 W/m 9,7 km/h (2 Bft) 97,87 %
28.06.2019 18:08 29,4 C 27,8 C 30,0 C 43 % 1022,5 hPa 0,0 l/m 4 min 0 min 538 W/m 9,7 km/h (2 Bft) 97,87 %
28.06.2019 18:10 29,4 C 27,2 C 29,4 C 43 % 1022,5 hPa 0,0 l/m 2 min 0 min 529 W/m 9,7 km/h (2 Bft) 97,87 %
28.06.2019 18:12 29,3 C 27,2 C 28,3 C 42 % 1022,5 hPa 0,0 l/m 2 min 0 min 524 W/m 6,4 km/h (2 Bft) 95,74 %
28.06.2019 18:14 29,3 C 27,8 C 27,8 C 42 % 1022,5 hPa 0,0 l/m 2 min 0 min 518 W/m 6,4 km/h (2 Bft) 95,65 %
28.06.2019 18:16 29,3 C 27,8 C 27,2 C 43 % 1022,4 hPa 0,0 l/m 2 min 0 min 511 W/m 6,4 km/h (2 Bft) 97,87 %
28.06.2019 18:18 29,3 C 27,8 C 27,2 C 43 % 1022,5 hPa 0,0 l/m 2 min 0 min 504 W/m 9,7 km/h (2 Bft) 97,87 %
28.06.2019 18:20 29,2 C 27,8 C 27,2 C 42 % 1022,5 hPa 0,0 l/m 2 min 0 min 497 W/m 9,7 km/h (2 Bft) 97,87 %
28.06.2019 18:22 29,2 C 27,8 C 27,2 C 43 % 1022,4 hPa 0,0 l/m 2 min 0 min 492 W/m 6,4 km/h (2 Bft) 97,87 %
28.06.2019 18:24 29,2 C 27,8 C 27,2 C 43 % 1022,4 hPa 0,0 l/m 2 min 0 min 485 W/m 9,7 km/h (2 Bft) 97,83 %
28.06.2019 18:26 29,1 C 27,2 C 27,2 C 42 % 1022,4 hPa 0,0 l/m 2 min 0 min 479 W/m 9,7 km/h (2 Bft) 97,87 %
28.06.2019 18:28 29,1 C 27,2 C 26,7 C 42 % 1022,3 hPa 0,0 l/m 2 min 0 min 474 W/m 6,4 km/h (2 Bft) 95,74 %
28.06.2019 18:30 29,1 C 27,2 C 26,7 C 44 % 1022,3 hPa 0,0 l/m 2 min 0 min 469 W/m 6,4 km/h (2 Bft) 97,87 %
28.06.2019 18:32 29,0 C 27,2 C 26,7 C 44 % 1022,3 hPa 0,0 l/m 2 min 0 min 463 W/m 6,4 km/h (2 Bft) 95,74 %
28.06.2019 18:34 28,9 C 27,2 C 26,1 C 44 % 1022,2 hPa 0,0 l/m 2 min 0 min 457 W/m 9,7 km/h (2 Bft) 97,87 %
28.06.2019 18:36 28,8 C 27,2 C 26,1 C 42 % 1022,3 hPa 0,0 l/m 2 min 0 min 452 W/m 6,4 km/h (2 Bft) 97,83 %
28.06.2019 18:38 28,8 C 27,2 C 26,1 C 42 % 1022,2 hPa 0,0 l/m 2 min 0 min 446 W/m 9,7 km/h (2 Bft) 100,00 %
28.06.2019 18:40 28,8 C 27,2 C 26,1 C 43 % 1022,2 hPa 0,0 l/m 2 min 0 min 442 W/m 6,4 km/h (2 Bft) 97,87 %
28.06.2019 18:42 28,8 C 27,2 C 26,1 C 43 % 1022,2 hPa 0,0 l/m 2 min 0 min 434 W/m 6,4 km/h (2 Bft) 100,00 %
28.06.2019 18:44 28,8 C 27,2 C 25,6 C 44 % 1022,2 hPa 0,0 l/m 2 min 0 min 427 W/m 9,7 km/h (2 Bft) 100,00 %
28.06.2019 18:46 28,8 C 27,2 C 25,6 C 45 % 1022,2 hPa 0,0 l/m 2 min 0 min 420 W/m 6,4 km/h (2 Bft) 100,00 %
28.06.2019 18:48 28,8 C 27,2 C 25,6 C 45 % 1022,1 hPa 0,0 l/m 2 min 0 min 413 W/m 9,7 km/h (2 Bft) 100,00 %
28.06.2019 18:50 28,8 C 27,2 C 25,6 C 44 % 1022,1 hPa 0,0 l/m 2 min 0 min 408 W/m 6,4 km/h (2 Bft) 100,00 %
28.06.2019 18:52 28,7 C 27,2 C 25,6 C 44 % 1022,1 hPa 0,0 l/m 2 min 0 min 404 W/m 9,7 km/h (2 Bft) 100,00 %
28.06.2019 18:54 28,7 C 27,2 C 25,6 C 45 % 1022,2 hPa 0,0 l/m 2 min 0 min 398 W/m 9,7 km/h (2 Bft) 100,00 %
28.06.2019 18:56 28,7 C 27,2 C 25,6 C 44 % 1022,2 hPa 0,0 l/m 2 min 0 min 393 W/m 9,7 km/h (2 Bft) 97,87 %
28.06.2019 18:58 28,6 C 26,7 C 25,6 C 44 % 1022,2 hPa 0,0 l/m 2 min 0 min 387 W/m 9,7 km/h (2 Bft) 100,00 %
28.06.2019 19:00 28,6 C 26,7 C 25,6 C 45 % 1022,1 hPa 0,0 l/m 2 min 0 min 381 W/m 6,4 km/h (2 Bft) 100,00 %
28.06.2019 19:02 28,6 C 27,2 C 25,0 C 43 % 1022,1 hPa 0,0 l/m 2 min 0 min 375 W/m 9,7 km/h (2 Bft) 97,87 %
28.06.2019 19:04 28,6 C 26,7 C 25,0 C 42 % 1022,1 hPa 0,0 l/m 2 min 0 min 370 W/m 9,7 km/h (2 Bft) 100,00 %
28.06.2019 19:06 28,5 C 26,7 C 25,0 C 43 % 1022,1 hPa 0,0 l/m 2 min 0 min 364 W/m 6,4 km/h (2 Bft) 97,87 %
28.06.2019 19:08 28,5 C 26,7 C 25,0 C 44 % 1022,0 hPa 0,0 l/m 2 min 0 min 357 W/m 6,4 km/h (2 Bft) 100,00 %
28.06.2019 19:10 28,5 C 26,7 C 24,4 C 44 % 1022,1 hPa 0,0 l/m 2 min 0 min 350 W/m 6,4 km/h (2 Bft) 100,00 %
28.06.2019 19:12 28,4 C 26,7 C 24,4 C 45 % 1022,1 hPa 0,0 l/m 2 min 0 min 341 W/m 6,4 km/h (2 Bft) 100,00 %
28.06.2019 19:14 28,4 C 26,7 C 24,4 C 45 % 1022,0 hPa 0,0 l/m 2 min 0 min 337 W/m 6,4 km/h (2 Bft) 100,00 %
28.06.2019 19:16 28,4 C 26,7 C 24,4 C 45 % 1022,1 hPa 0,0 l/m 2 min 0 min 332 W/m 6,4 km/h (2 Bft) 100,00 %
28.06.2019 19:18 28,4 C 26,7 C 24,4 C 45 % 1022,1 hPa 0,0 l/m 2 min 0 min 325 W/m 6,4 km/h (2 Bft) 100,00 %
28.06.2019 19:20 28,3 C 26,7 C 24,4 C 45 % 1022,1 hPa 0,0 l/m 2 min 0 min 320 W/m 6,4 km/h (2 Bft) 100,00 %
28.06.2019 19:22 28,3 C 26,7 C 24,4 C 46 % 1022,0 hPa 0,0 l/m 2 min 0 min 315 W/m 6,4 km/h (2 Bft) 100,00 %
28.06.2019 19:24 28,2 C 26,1 C 23,9 C 45 % 1022,0 hPa 0,0 l/m 2 min 0 min 308 W/m 9,7 km/h (2 Bft) 100,00 %
28.06.2019 19:26 28,2 C 26,1 C 23,9 C 45 % 1022,0 hPa 0,0 l/m 2 min 0 min 302 W/m 6,4 km/h (2 Bft) 100,00 %
28.06.2019 19:28 28,1 C 26,1 C 23,9 C 44 % 1022,0 hPa 0,0 l/m 2 min 0 min 293 W/m 12,9 km/h (3 Bft) 100,00 %
28.06.2019 19:30 28,1 C 26,1 C 23,9 C 45 % 1021,9 hPa 0,0 l/m 2 min 0 min 285 W/m 6,4 km/h (2 Bft) 100,00 %
28.06.2019 19:32 28,1 C 26,1 C 23,9 C 46 % 1022,0 hPa 0,0 l/m 2 min 0 min 268 W/m 6,4 km/h (2 Bft) 100,00 %
28.06.2019 19:34 28,0 C 26,1 C 23,9 C 46 % 1021,9 hPa 0,0 l/m 0 min 0 min 121 W/m 6,4 km/h (2 Bft) 100,00 %
28.06.2019 19:36 27,9 C 26,1 C 23,9 C 44 % 1021,9 hPa 0,0 l/m 0 min 0 min 53 W/m 6,4 km/h (2 Bft) 100,00 %
28.06.2019 19:38 27,9 C 25,6 C 23,9 C 44 % 1021,9 hPa 0,0 l/m 0 min 0 min 52 W/m 6,4 km/h (2 Bft) 100,00 %
28.06.2019 19:40 27,9 C 25,6 C 23,3 C 45 % 1021,9 hPa 0,0 l/m 0 min 0 min 131 W/m 6,4 km/h (2 Bft) 100,00 %
28.06.2019 19:42 27,8 C 25,0 C 23,3 C 46 % 1021,9 hPa 0,0 l/m 2 min 0 min 242 W/m 6,4 km/h (2 Bft) 100,00 %
28.06.2019 19:44 27,8 C 25,0 C 23,3 C 47 % 1021,9 hPa 0,0 l/m 2 min 0 min 239 W/m 6,4 km/h (2 Bft) 100,00 %
28.06.2019 19:46 27,7 C 25,0 C 22,8 C 48 % 1021,9 hPa 0,0 l/m 2 min 0 min 231 W/m 6,4 km/h (2 Bft) 100,00 %
28.06.2019 19:48 27,6 C 25,0 C 22,2 C 47 % 1021,9 hPa 0,0 l/m 2 min 0 min 224 W/m 6,4 km/h (2 Bft) 100,00 %
28.06.2019 19:50 27,5 C 24,4 C 22,2 C 48 % 1021,9 hPa 0,0 l/m 2 min 0 min 215 W/m 6,4 km/h (2 Bft) 97,87 %
28.06.2019 19:52 27,4 C 24,4 C 21,7 C 48 % 1021,9 hPa 0,0 l/m 2 min 0 min 149 W/m 6,4 km/h (2 Bft) 97,87 %
28.06.2019 19:54 27,3 C 24,4 C 21,7 C 48 % 1021,9 hPa 0,0 l/m 0 min 0 min 64 W/m 9,7 km/h (2 Bft) 97,87 %
28.06.2019 19:56 27,2 C 24,4 C 21,7 C 47 % 1021,9 hPa 0,0 l/m 0 min 0 min 46 W/m 6,4 km/h (2 Bft) 95,74 %
28.06.2019 19:58 27,1 C 24,4 C 21,7 C 48 % 1021,9 hPa 0,0 l/m 0 min 0 min 44 W/m 6,4 km/h (2 Bft) 97,83 %
28.06.2019 20:00 26,9 C 24,4 C 21,7 C 47 % 1022,0 hPa 0,0 l/m 0 min 0 min 44 W/m 9,7 km/h (2 Bft) 97,87 %
28.06.2019 20:02 26,8 C 24,4 C 21,1 C 48 % 1021,9 hPa 0,0 l/m 0 min 0 min 42 W/m 6,4 km/h (2 Bft) 93,62 %
28.06.2019 20:04 26,7 C 23,9 C 21,1 C 50 % 1021,9 hPa 0,0 l/m 0 min 0 min 42 W/m 6,4 km/h (2 Bft) 98,00 %
28.06.2019 20:06 26,6 C 23,9 C 21,1 C 50 % 1021,9 hPa 0,0 l/m 0 min 0 min 42 W/m 6,4 km/h (2 Bft) 97,92 %
28.06.2019 20:08 26,5 C 23,9 C 21,1 C 48 % 1021,9 hPa 0,0 l/m 0 min 0 min 40 W/m 9,7 km/h (2 Bft) 97,83 %
28.06.2019 20:10 26,4 C 23,9 C 21,1 C 48 % 1021,9 hPa 0,0 l/m 0 min 0 min 40 W/m 12,9 km/h (3 Bft) 97,87 %
28.06.2019 20:12 26,3 C 23,9 C 21,1 C 48 % 1021,9 hPa 0,0 l/m 0 min 0 min 39 W/m 9,7 km/h (2 Bft) 97,87 %
28.06.2019 20:14 26,2 C 23,9 C 21,1 C 49 % 1021,9 hPa 0,0 l/m 0 min 0 min 39 W/m 6,4 km/h (2 Bft) 97,92 %
28.06.2019 20:16 26,1 C 23,9 C 21,1 C 50 % 1021,8 hPa 0,0 l/m 0 min 0 min 38 W/m 6,4 km/h (2 Bft) 93,75 %
28.06.2019 20:18 26,0 C 23,3 C 21,1 C 51 % 1021,9 hPa 0,0 l/m 0 min 0 min 37 W/m 9,7 km/h (2 Bft) 97,87 %
28.06.2019 20:20 25,9 C 23,3 C 21,1 C 51 % 1021,9 hPa 0,0 l/m 0 min 0 min 36 W/m 9,7 km/h (2 Bft) 97,83 %
28.06.2019 20:22 25,8 C 23,3 C 21,1 C 52 % 1021,9 hPa 0,0 l/m 0 min 0 min 35 W/m 6,4 km/h (2 Bft) 97,87 %
28.06.2019 20:24 25,7 C 23,3 C 21,1 C 53 % 1021,9 hPa 0,0 l/m 0 min 0 min 34 W/m 9,7 km/h (2 Bft) 97,87 %
28.06.2019 20:26 25,7 C 23,3 C 21,1 C 53 % 1021,8 hPa 0,0 l/m 0 min 0 min 33 W/m 3,2 km/h (1 Bft) 97,87 %
28.06.2019 20:28 25,6 C 22,8 C 20,6 C 52 % 1021,8 hPa 0,0 l/m 0 min 0 min 33 W/m 6,4 km/h (2 Bft) 97,87 %
28.06.2019 20:30 25,5 C 22,8 C 20,6 C 53 % 1021,9 hPa 0,0 l/m 0 min 0 min 32 W/m 3,2 km/h (1 Bft) 97,87 %
28.06.2019 20:32 25,4 C 22,8 C 20,6 C 53 % 1021,9 hPa 0,0 l/m 0 min 0 min 30 W/m 3,2 km/h (1 Bft) 97,83 %
28.06.2019 20:34 25,3 C 22,8 C 20,6 C 53 % 1021,9 hPa 0,0 l/m 0 min 0 min 30 W/m 6,4 km/h (2 Bft) 97,87 %
28.06.2019 20:36 25,2 C 22,8 C 20,6 C 53 % 1021,9 hPa 0,0 l/m 0 min 0 min 29 W/m 6,4 km/h (2 Bft) 97,87 %
28.06.2019 20:38 25,2 C 22,8 C 20,6 C 53 % 1021,8 hPa 0,0 l/m 0 min 0 min 28 W/m 6,4 km/h (2 Bft) 100,00 %
28.06.2019 20:40 25,1 C 22,8 C 20,6 C 53 % 1021,9 hPa 0,0 l/m 0 min 0 min 26 W/m 3,2 km/h (1 Bft) 97,87 %
28.06.2019 20:42 25,1 C 22,8 C 20,6 C 54 % 1021,9 hPa 0,0 l/m 0 min 0 min 26 W/m 3,2 km/h (1 Bft) 97,87 %
28.06.2019 20:44 25,0 C 22,2 C 20,6 C 54 % 1021,9 hPa 0,0 l/m 0 min 0 min 26 W/m 3,2 km/h (1 Bft) 97,83 %
28.06.2019 20:46 24,9 C 22,2 C 20,6 C 54 % 1021,8 hPa 0,0 l/m 0 min 0 min 25 W/m 3,2 km/h (1 Bft) 95,74 %
28.06.2019 20:48 24,8 C 22,2 C 20,6 C 54 % 1021,8 hPa 0,0 l/m 0 min 0 min 25 W/m 3,2 km/h (1 Bft) 97,87 %
28.06.2019 20:50 24,8 C 22,2 C 20,6 C 54 % 1021,8 hPa 0,0 l/m 0 min 0 min 23 W/m 3,2 km/h (1 Bft) 97,87 %
28.06.2019 20:52 24,7 C 22,2 C 20,6 C 54 % 1021,8 hPa 0,0 l/m 0 min 0 min 23 W/m 3,2 km/h (1 Bft) 97,87 %
28.06.2019 20:54 24,6 C 22,2 C 20,0 C 54 % 1021,8 hPa 0,0 l/m 0 min 0 min 22 W/m 6,4 km/h (2 Bft) 97,83 %
28.06.2019 20:56 24,6 C 22,2 C 20,0 C 55 % 1021,8 hPa 0,0 l/m 0 min 0 min 21 W/m 3,2 km/h (1 Bft) 97,87 %
28.06.2019 20:58 24,4 C 21,7 C 20,0 C 55 % 1021,8 hPa 0,0 l/m 0 min 0 min 20 W/m 3,2 km/h (1 Bft) 95,74 %
28.06.2019 21:00 24,4 C 21,7 C 20,0 C 55 % 1021,8 hPa 0,0 l/m 0 min 0 min 19 W/m 3,2 km/h (1 Bft) 95,74 %
28.06.2019 21:02 24,3 C 21,7 C 20,0 C 55 % 1021,8 hPa 0,0 l/m 0 min 0 min 19 W/m 3,2 km/h (1 Bft) 97,87 %
28.06.2019 21:04 24,3 C 21,7 C 20,0 C 55 % 1021,8 hPa 0,0 l/m 0 min 0 min 18 W/m 3,2 km/h (1 Bft) 95,83 %
28.06.2019 21:06 24,2 C 21,7 C 20,0 C 56 % 1021,8 hPa 0,0 l/m 0 min 0 min 18 W/m 3,2 km/h (1 Bft) 97,83 %
28.06.2019 21:08 24,1 C 21,1 C 20,0 C 55 % 1021,8 hPa 0,0 l/m 0 min 0 min 17 W/m 3,2 km/h (1 Bft) 93,62 %
28.06.2019 21:10 24,1 C 21,1 C 20,0 C 56 % 1021,8 hPa 0,0 l/m 0 min 0 min 16 W/m 3,2 km/h (1 Bft) 95,74 %
28.06.2019 21:12 24,0 C 21,1 C 20,0 C 56 % 1021,8 hPa 0,0 l/m 0 min 0 min 16 W/m 3,2 km/h (1 Bft) 91,49 %
28.06.2019 21:14 23,9 C 21,1 C 19,4 C 56 % 1021,7 hPa 0,0 l/m 0 min 0 min 15 W/m 3,2 km/h (1 Bft) 95,74 %
28.06.2019 21:16 23,8 C 21,1 C 19,4 C 56 % 1021,8 hPa 0,0 l/m 0 min 0 min 14 W/m 3,2 km/h (1 Bft) 95,74 %
28.06.2019 21:18 23,8 C 21,1 C 19,4 C 56 % 1021,8 hPa 0,0 l/m 0 min 0 min 14 W/m 3,2 km/h (1 Bft) 95,74 %
28.06.2019 21:20 23,7 C 21,1 C 19,4 C 56 % 1021,8 hPa 0,0 l/m 0 min 0 min 13 W/m 3,2 km/h (1 Bft) 95,65 %
28.06.2019 21:22 23,6 C 21,1 C 19,4 C 56 % 1021,9 hPa 0,0 l/m 0 min 0 min 12 W/m 3,2 km/h (1 Bft) 93,62 %
28.06.2019 21:24 23,6 C 21,1 C 19,4 C 56 % 1021,9 hPa 0,0 l/m 0 min 0 min 12 W/m 3,2 km/h (1 Bft) 95,74 %
28.06.2019 21:26 23,5 C 21,1 C 19,4 C 56 % 1021,9 hPa 0,0 l/m 0 min 0 min 12 W/m 3,2 km/h (1 Bft) 95,74 %
28.06.2019 21:28 23,4 C 21,1 C 19,4 C 56 % 1021,9 hPa 0,0 l/m 0 min 0 min 11 W/m 3,2 km/h (1 Bft) 95,74 %
28.06.2019 21:30 23,3 C 20,6 C 19,4 C 56 % 1021,9 hPa 0,0 l/m 0 min 0 min 11 W/m 3,2 km/h (1 Bft) 95,65 %
28.06.2019 21:32 23,3 C 20,6 C 19,4 C 56 % 1021,9 hPa 0,0 l/m 0 min 0 min 11 W/m 3,2 km/h (1 Bft) 93,62 %
28.06.2019 21:34 23,2 C 20,6 C 19,4 C 56 % 1021,8 hPa 0,0 l/m 0 min 0 min 9 W/m 3,2 km/h (1 Bft) 95,74 %
28.06.2019 21:36 23,2 C 20,6 C 19,4 C 57 % 1021,9 hPa 0,0 l/m 0 min 0 min 9 W/m 3,2 km/h (1 Bft) 95,74 %
28.06.2019 21:38 23,1 C 20,6 C 19,4 C 57 % 1021,8 hPa 0,0 l/m 0 min 0 min 9 W/m 3,2 km/h (1 Bft) 95,74 %
28.06.2019 21:40 23,0 C 20,6 C 19,4 C 57 % 1021,8 hPa 0,0 l/m 0 min 0 min 7 W/m 3,2 km/h (1 Bft) 95,74 %
28.06.2019 21:42 22,9 C 20,6 C 19,4 C 57 % 1021,8 hPa 0,0 l/m 0 min 0 min 7 W/m 3,2 km/h (1 Bft) 97,83 %
28.06.2019 21:44 22,9 C 20,0 C 18,9 C 57 % 1021,8 hPa 0,0 l/m 0 min 0 min 7 W/m 0,0 km/h (0 Bft) 97,87 %
28.06.2019 21:46 22,8 C 20,0 C 18,9 C 57 % 1021,8 hPa 0,0 l/m 0 min 0 min 5 W/m 0,0 km/h (0 Bft) 97,87 %
28.06.2019 21:48 22,8 C 20,0 C 18,9 C 57 % 1021,8 hPa 0,0 l/m 0 min 0 min 5 W/m 3,2 km/h (1 Bft) 97,87 %
28.06.2019 21:50 22,7 C 20,0 C 18,9 C 57 % 1021,8 hPa 0,0 l/m 0 min 0 min 5 W/m 0,0 km/h (0 Bft) 97,87 %
28.06.2019 21:52 22,7 C 20,0 C 18,9 C 57 % 1021,8 hPa 0,0 l/m 0 min 0 min 4 W/m 0,0 km/h (0 Bft) 95,74 %
28.06.2019 21:54 22,6 C 20,0 C 18,9 C 57 % 1021,8 hPa 0,0 l/m 0 min 0 min 0 W/m 0,0 km/h (0 Bft) 97,83 %
28.06.2019 21:56 22,6 C 20,0 C 18,3 C 57 % 1021,9 hPa 0,0 l/m 0 min 0 min 0 W/m 0,0 km/h (0 Bft) 95,74 %
28.06.2019 21:58 22,5 C 19,4 C 18,3 C 58 % 1021,9 hPa 0,0 l/m 0 min 0 min 0 W/m 0,0 km/h (0 Bft) 95,74 %
28.06.2019 22:00 22,4 C 19,4 C 18,3 C 58 % 1021,9 hPa 0,0 l/m 0 min 0 min 0 W/m 0,0 km/h (0 Bft) 100,00 %
28.06.2019 22:02 22,4 C 19,4 C 18,3 C 58 % 1021,9 hPa 0,0 l/m 0 min 0 min 0 W/m 0,0 km/h (0 Bft) 95,74 %
28.06.2019 22:04 22,3 C 19,4 C 17,8 C 58 % 1021,9 hPa 0,0 l/m 0 min 0 min 0 W/m 0,0 km/h (0 Bft) 100,00 %
28.06.2019 22:06 22,3 C 19,4 C 17,8 C 58 % 1021,9 hPa 0,0 l/m 0 min 0 min 0 W/m 0,0 km/h (0 Bft) 100,00 %
28.06.2019 22:08 22,2 C 18,9 C 17,8 C 59 % 1022,0 hPa 0,0 l/m 0 min 0 min 0 W/m 0,0 km/h (0 Bft) 100,00 %
28.06.2019 22:10 22,1 C 18,9 C 17,8 C 60 % 1022,0 hPa 0,0 l/m 0 min 0 min 0 W/m 0,0 km/h (0 Bft) 100,00 %
28.06.2019 22:12 22,1 C 18,9 C 17,8 C 60 % 1022,0 hPa 0,0 l/m 0 min 0 min 0 W/m 0,0 km/h (0 Bft) 97,87 %
28.06.2019 22:14 22,0 C 18,9 C 17,2 C 60 % 1022,0 hPa 0,0 l/m 0 min 0 min 0 W/m 0,0 km/h (0 Bft) 100,00 %
28.06.2019 22:16 21,9 C 18,9 C 17,2 C 61 % 1022,0 hPa 0,0 l/m 0 min 0 min 0 W/m 0,0 km/h (0 Bft) 100,00 %
28.06.2019 22:18 21,8 C 18,9 C 17,2 C 61 % 1022,0 hPa 0,0 l/m 0 min 0 min 0 W/m 0,0 km/h (0 Bft) 100,00 %
28.06.2019 22:20 21,7 C 18,3 C 17,2 C 62 % 1022,1 hPa 0,0 l/m 0 min 0 min 0 W/m 0,0 km/h (0 Bft) 100,00 %
28.06.2019 22:22 21,7 C 18,3 C 17,2 C 63 % 1022,0 hPa 0,0 l/m 0 min 0 min 0 W/m 0,0 km/h (0 Bft) 100,00 %
28.06.2019 22:24 21,6 C 18,3 C 17,2 C 63 % 1022,0 hPa 0,0 l/m 0 min 0 min 0 W/m 0,0 km/h (0 Bft) 100,00 %
28.06.2019 22:26 21,5 C 18,3 C 17,2 C 63 % 1022,0 hPa 0,0 l/m 0 min 0 min 0 W/m 0,0 km/h (0 Bft) 100,00 %
28.06.2019 22:28 21,4 C 18,3 C 17,2 C 63 % 1022,0 hPa 0,0 l/m 0 min 0 min 0 W/m 0,0 km/h (0 Bft) 100,00 %
28.06.2019 22:30 21,3 C 18,3 C 16,7 C 63 % 1022,0 hPa 0,0 l/m 0 min 0 min 0 W/m 0,0 km/h (0 Bft) 100,00 %
28.06.2019 22:32 21,2 C 17,8 C 16,7 C 63 % 1022,0 hPa 0,0 l/m 0 min 0 min 0 W/m 0,0 km/h (0 Bft) 100,00 %
28.06.2019 22:34 21,2 C 18,3 C 16,7 C 63 % 1022,0 hPa 0,0 l/m 0 min 0 min 0 W/m 0,0 km/h (0 Bft) 100,00 %
28.06.2019 22:36 21,1 C 17,8 C 16,7 C 64 % 1022,1 hPa 0,0 l/m 0 min 0 min 0 W/m 0,0 km/h (0 Bft) 95,74 %
28.06.2019 22:38 21,0 C 17,8 C 16,7 C 64 % 1022,0 hPa 0,0 l/m 0 min 0 min 0 W/m 0,0 km/h (0 Bft) 97,87 %
28.06.2019 22:40 20,9 C 17,8 C 16,7 C 63 % 1022,0 hPa 0,0 l/m 0 min 0 min 0 W/m 0,0 km/h (0 Bft) 97,83 %
28.06.2019 22:42 20,8 C 17,8 C 16,7 C 63 % 1022,0 hPa 0,0 l/m 0 min 0 min 0 W/m 3,2 km/h (1 Bft) 97,87 %
28.06.2019 22:44 20,8 C 17,8 C 16,7 C 63 % 1022,0 hPa 0,0 l/m 0 min 0 min 0 W/m 0,0 km/h (0 Bft) 97,87 %
28.06.2019 22:46 20,7 C 18,3 C 16,7 C 63 % 1022,0 hPa 0,0 l/m 0 min 0 min 0 W/m 3,2 km/h (1 Bft) 97,87 %
28.06.2019 22:48 20,6 C 18,3 C 16,7 C 63 % 1022,0 hPa 0,0 l/m 0 min 0 min 0 W/m 3,2 km/h (1 Bft) 97,87 %
28.06.2019 22:50 20,6 C 17,8 C 16,7 C 63 % 1022,0 hPa 0,0 l/m 0 min 0 min 0 W/m 0,0 km/h (0 Bft) 97,87 %
28.06.2019 22:52 20,6 C 18,3 C 16,7 C 63 % 1022,0 hPa 0,0 l/m 0 min 0 min 0 W/m 0,0 km/h (0 Bft) 97,83 %
28.06.2019 22:54 20,5 C 17,8 C 16,7 C 63 % 1022,0 hPa 0,0 l/m 0 min 0 min 0 W/m 0,0 km/h (0 Bft) 95,74 %
28.06.2019 22:56 20,4 C 17,8 C 16,7 C 63 % 1022,1 hPa 0,0 l/m 0 min 0 min 0 W/m 0,0 km/h (0 Bft) 97,92 %
28.06.2019 22:58 20,4 C 17,8 C 16,7 C 63 % 1022,0 hPa 0,0 l/m 0 min 0 min 0 W/m 0,0 km/h (0 Bft) 96,00 %
28.06.2019 23:00 20,3 C 17,8 C 16,7 C 63 % 1022,1 hPa 0,0 l/m 0 min 0 min 0 W/m 0,0 km/h (0 Bft) 97,22 %
28.06.2019 23:02 20,3 C 17,8 C 16,7 C 63 % 1022,1 hPa 0,0 l/m 0 min 0 min 0 W/m 3,2 km/h (1 Bft) 96,00 %
28.06.2019 23:04 20,2 C 17,8 C 16,7 C 63 % 1022,0 hPa 0,0 l/m 0 min 0 min 0 W/m 0,0 km/h (0 Bft) 95,74 %
28.06.2019 23:06 20,2 C 17,8 C 16,7 C 63 % 1022,0 hPa 0,0 l/m 0 min 0 min 0 W/m 0,0 km/h (0 Bft) 97,87 %
28.06.2019 23:08 20,1 C 17,8 C 16,7 C 63 % 1022,1 hPa 0,0 l/m 0 min 0 min 0 W/m 0,0 km/h (0 Bft) 97,92 %
28.06.2019 23:10 20,1 C 17,2 C 16,1 C 64 % 1022,1 hPa 0,0 l/m 0 min 0 min 0 W/m 0,0 km/h (0 Bft) 97,87 %
28.06.2019 23:12 20,1 C 17,2 C 16,1 C 64 % 1022,1 hPa 0,0 l/m 0 min 0 min 0 W/m 0,0 km/h (0 Bft) 95,83 %
28.06.2019 23:14 20,0 C 17,2 C 16,1 C 64 % 1022,1 hPa 0,0 l/m 0 min 0 min 0 W/m 0,0 km/h (0 Bft) 97,87 %
28.06.2019 23:16 19,9 C 16,7 C 16,1 C 65 % 1022,1 hPa 0,0 l/m 0 min 0 min 0 W/m 0,0 km/h (0 Bft) 97,87 %
28.06.2019 23:18 19,9 C 16,7 C 16,1 C 65 % 1022,1 hPa 0,0 l/m 0 min 0 min 0 W/m 0,0 km/h (0 Bft) 97,92 %
28.06.2019 23:20 19,9 C 16,7 C 16,1 C 65 % 1022,0 hPa 0,0 l/m 0 min 0 min 0 W/m 0,0 km/h (0 Bft) 97,92 %
28.06.2019 23:22 19,8 C 16,7 C 16,1 C 65 % 1022,1 hPa 0,0 l/m 0 min 0 min 0 W/m 0,0 km/h (0 Bft) 97,87 %
28.06.2019 23:24 19,7 C 17,2 C 16,1 C 64 % 1022,0 hPa 0,0 l/m 0 min 0 min 0 W/m 0,0 km/h (0 Bft) 95,74 %
28.06.2019 23:26 19,7 C 17,2 C 16,1 C 65 % 1022,0 hPa 0,0 l/m 0 min 0 min 0 W/m 0,0 km/h (0 Bft) 95,74 %
28.06.2019 23:28 19,7 C 16,7 C 15,6 C 65 % 1022,1 hPa 0,0 l/m 0 min 0 min 0 W/m 0,0 km/h (0 Bft) 100,00 %
28.06.2019 23:30 19,6 C 16,7 C 15,6 C 66 % 1022,1 hPa 0,0 l/m 0 min 0 min 0 W/m 0,0 km/h (0 Bft) 100,00 %
28.06.2019 23:32 19,6 C 16,7 C 15,6 C 66 % 1022,1 hPa 0,0 l/m 0 min 0 min 0 W/m 0,0 km/h (0 Bft) 97,92 %
28.06.2019 23:34 19,5 C 16,7 C 15,6 C 66 % 1022,1 hPa 0,0 l/m 0 min 0 min 0 W/m 0,0 km/h (0 Bft) 97,87 %
28.06.2019 23:36 19,4 C 16,7 C 15,6 C 66 % 1022,1 hPa 0,0 l/m 0 min 0 min 0 W/m 0,0 km/h (0 Bft) 97,92 %
28.06.2019 23:38 19,4 C 16,7 C 15,6 C 67 % 1022,1 hPa 0,0 l/m 0 min 0 min 0 W/m 0,0 km/h (0 Bft) 97,92 %
28.06.2019 23:40 19,3 C 16,7 C 15,6 C 67 % 1022,1 hPa 0,0 l/m 0 min 0 min 0 W/m 0,0 km/h (0 Bft) 97,87 %
28.06.2019 23:42 19,3 C 16,7 C 15,6 C 67 % 1022,0 hPa 0,0 l/m 0 min 0 min 0 W/m 0,0 km/h (0 Bft) 95,74 %
28.06.2019 23:44 19,2 C 16,7 C 15,6 C 67 % 1022,1 hPa 0,0 l/m 0 min 0 min 0 W/m 0,0 km/h (0 Bft) 95,74 %
28.06.2019 23:46 19,2 C 16,7 C 15,6 C 67 % 1022,1 hPa 0,0 l/m 0 min 0 min 0 W/m 0,0 km/h (0 Bft) 97,92 %
28.06.2019 23:48 19,1 C 16,7 C 15,6 C 68 % 1022,1 hPa 0,0 l/m 0 min 0 min 0 W/m 0,0 km/h (0 Bft) 97,92 %
28.06.2019 23:50 19,1 C 16,1 C 15,0 C 68 % 1022,1 hPa 0,0 l/m 0 min 0 min 0 W/m 0,0 km/h (0 Bft) 97,87 %
28.06.2019 23:52 19,0 C 16,1 C 15,0 C 68 % 1022,1 hPa 0,0 l/m 0 min 0 min 0 W/m 0,0 km/h (0 Bft) 97,92 %
28.06.2019 23:54 18,9 C 16,1 C 15,0 C 68 % 1022,1 hPa 0,0 l/m 0 min 0 min 0 W/m 0,0 km/h (0 Bft) 97,87 %
28.06.2019 23:56 18,9 C 16,1 C 15,0 C 68 % 1022,0 hPa 0,0 l/m 0 min 0 min 0 W/m 0,0 km/h (0 Bft) 97,92 %
28.06.2019 23:58 18,8 C 16,1 C 15,0 C 68 % 1022,0 hPa 0,0 l/m 0 min 0 min 0 W/m 0,0 km/h (0 Bft) 97,37 %
_ Min-Zeit 05:56 05:16 05:14 16:58 21:14 - - - - 00:02 00:02
Minimum _ 12,4 C 11,1 C 11,1 C 40 % 1021,7 hPa - - - - 0,0 km/h (0 Bft) 20,00 %
_ Max-Zeit 16:48 13:06 14:18 07:06 06:30 00:00 12:08 00:00 13:38 13:08 00:10
Maximum _ 29,6 C 32,8 C 38,3 C 92 % 1026,2 hPa 0,0 l/m 4 min 0 min 976 W/m 22,5 km/h
O (4 Bft)
100,00 %
Durchschnitt _ 21,0 C 21,7 C 22,1 C 66 % 1024,4 hPa #0,0 l/m #10:36 h #0 min. 493 W/m 6,0 km/h (2 Bft) 97,51 %
© 2019 W. Hausmann